Time,TemperatureF,DewpointF,PressureIn,WindDirection,WindDirectionDegrees,WindSpeedMPH,WindSpeedGustMPH,Humidity,HourlyPrecipIn,Conditions,Clouds,dailyrainin,SoftwareType,DateUTC
2013-04-28 00:00:00,55.8,29.2,30.10,SSE,158,0.0,0.0,36,0.00,CLR,,0.00,WeatherDisplay:10.37,2013-04-28 04:00:00,
2013-04-28 00:01:00,55.8,29.2,30.10,SSE,158,0.0,0.0,36,0.00,CLR,,0.00,WeatherDisplay:10.37,2013-04-28 04:01:00,
2013-04-28 00:06:00,55.8,29.2,30.10,SSE,158,0.0,0.0,36,0.00,CLR,,0.00,WeatherDisplay:10.37,2013-04-28 04:06:00,
2013-04-28 00:11:00,55.8,29.2,30.07,SSE,158,0.0,0.0,36,0.00,CLR,,0.00,WeatherDisplay:10.37,2013-04-28 04:11:00,
2013-04-28 00:16:00,53.4,29.1,30.07,SSE,158,0.0,0.0,39,0.00,CLR,,0.00,WeatherDisplay:10.37,2013-04-28 04:16:00,
2013-04-28 00:21:00,53.4,29.1,30.07,SSE,158,0.0,0.0,39,0.00,CLR,,0.00,WeatherDisplay:10.37,2013-04-28 04:21:00,
2013-04-28 00:22:00,53.4,29.1,30.07,SSE,158,0.0,0.0,39,0.00,CLR,,0.00,WeatherDisplay:10.37,2013-04-28 04:22:00,
2013-04-28 00:26:00,54.1,29.1,30.07,SSW,202,0.0,0.0,38,0.00,CLR,,0.00,WeatherDisplay:10.37,2013-04-28 04:26:00,
2013-04-28 00:27:00,54.1,29.1,30.07,SSW,202,0.0,0.0,38,0.00,CLR,,0.00,WeatherDisplay:10.37,2013-04-28 04:27:00,
2013-04-28 00:31:00,54.1,29.1,30.07,SW,225,0.0,0.0,38,0.00,CLR,,0.00,WeatherDisplay:10.37,2013-04-28 04:31:00,
2013-04-28 00:32:00,54.1,29.1,30.07,SW,225,0.0,0.0,38,0.00,CLR,,0.00,WeatherDisplay:10.37,2013-04-28 04:32:00,
2013-04-28 00:37:00,54.1,29.1,30.07,West,270,0.0,0.0,38,0.00,CLR,,0.00,WeatherDisplay:10.37,2013-04-28 04:37:00,
2013-04-28 00:38:00,54.1,29.1,30.07,SSW,202,0.0,0.0,38,0.00,CLR,,0.00,WeatherDisplay:10.37,2013-04-28 04:38:00,
2013-04-28 00:42:00,54.0,28.9,30.07,SSW,202,0.0,0.0,38,0.00,CLR,,0.00,WeatherDisplay:10.37,2013-04-28 04:42:00,
2013-04-28 00:43:00,54.0,28.9,30.07,SSW,202,0.0,0.0,38,0.00,CLR,,0.00,WeatherDisplay:10.37,2013-04-28 04:43:00,
2013-04-28 00:47:00,53.6,28.6,30.07,SSW,202,0.0,0.0,38,0.00,CLR,,0.00,WeatherDisplay:10.37,2013-04-28 04:47:00,
2013-04-28 00:48:00,53.6,28.6,30.07,SSW,202,0.0,0.0,38,0.00,CLR,,0.00,WeatherDisplay:10.37,2013-04-28 04:48:00,
2013-04-28 00:49:00,53.6,28.6,30.07,SSW,202,0.0,0.0,38,0.00,CLR,,0.00,WeatherDisplay:10.37,2013-04-28 04:49:00,
2013-04-28 00:52:00,53.8,28.7,30.07,SSE,158,0.0,0.0,38,0.00,CLR,,0.00,WeatherDisplay:10.37,2013-04-28 04:52:00,
2013-04-28 00:53:00,53.8,28.7,30.07,SSE,158,0.0,0.0,38,0.00,CLR,,0.00,WeatherDisplay:10.37,2013-04-28 04:53:00,
2013-04-28 00:54:00,53.8,28.7,30.10,SSE,158,0.0,0.0,38,0.00,CLR,,0.00,WeatherDisplay:10.37,2013-04-28 04:54:00,
2013-04-28 00:58:00,54.0,28.9,30.10,SSE,158,0.0,0.0,38,0.00,CLR,,0.00,WeatherDisplay:10.37,2013-04-28 04:58:00,
2013-04-28 00:59:00,54.0,28.9,30.10,SSE,158,0.0,0.0,38,0.00,CLR,,0.00,WeatherDisplay:10.37,2013-04-28 04:59:00,
2013-04-28 01:03:00,54.0,28.9,30.10,SSE,158,0.0,0.0,38,0.00,CLR,,0.00,WeatherDisplay:10.37,2013-04-28 05:03:00,
2013-04-28 01:04:00,54.0,28.9,30.10,SSE,158,0.0,0.0,38,0.00,CLR,,0.00,WeatherDisplay:10.37,2013-04-28 05:04:00,
2013-04-28 01:08:00,54.0,28.9,30.07,SSE,158,0.0,0.0,38,0.00,CLR,,0.00,WeatherDisplay:10.37,2013-04-28 05:08:00,
2013-04-28 01:09:00,54.0,28.9,30.07,SSE,158,0.0,0.0,38,0.00,CLR,,0.00,WeatherDisplay:10.37,2013-04-28 05:09:00,
2013-04-28 01:10:00,54.0,28.9,30.07,SSE,158,0.0,0.0,38,0.00,CLR,,0.00,WeatherDisplay:10.37,2013-04-28 05:10:00,
2013-04-28 01:13:00,53.4,28.4,30.07,SSE,158,0.0,0.0,38,0.00,CLR,,0.00,WeatherDisplay:10.37,2013-04-28 05:13:00,
2013-04-28 01:14:00,53.4,28.4,30.07,SSE,158,0.0,0.0,38,0.00,CLR,,0.00,WeatherDisplay:10.37,2013-04-28 05:14:00,
2013-04-28 01:15:00,53.4,28.4,30.07,SSE,158,0.0,0.0,38,0.00,CLR,,0.00,WeatherDisplay:10.37,2013-04-28 05:15:00,
2013-04-28 01:18:00,53.2,28.3,30.07,SSE,158,0.0,0.0,38,0.00,CLR,,0.00,WeatherDisplay:10.37,2013-04-28 05:18:00,
2013-04-28 01:19:00,53.2,28.3,30.07,SSE,158,0.0,0.0,38,0.00,CLR,,0.00,WeatherDisplay:10.37,2013-04-28 05:19:00,
2013-04-28 01:20:00,53.2,28.3,30.07,SSE,158,0.0,0.0,38,0.00,CLR,,0.00,WeatherDisplay:10.37,2013-04-28 05:20:00,
2013-04-28 01:23:00,53.2,28.3,30.07,SSE,158,0.0,0.0,38,0.00,CLR,,0.00,WeatherDisplay:10.37,2013-04-28 05:23:00,
2013-04-28 01:24:00,53.2,28.3,30.07,SSE,158,0.0,0.0,38,0.00,CLR,,0.00,WeatherDisplay:10.37,2013-04-28 05:24:00,
2013-04-28 01:25:00,53.2,28.9,30.07,SSE,158,0.0,0.0,39,0.00,CLR,,0.00,WeatherDisplay:10.37,2013-04-28 05:25:00,
2013-04-28 01:29:00,53.1,28.1,30.07,SSE,158,0.0,0.0,38,0.00,CLR,,0.00,WeatherDisplay:10.37,2013-04-28 05:29:00,
2013-04-28 01:30:00,52.9,27.9,30.07,SSE,158,0.0,0.0,38,0.00,CLR,,0.00,WeatherDisplay:10.37,2013-04-28 05:30:00,
2013-04-28 01:34:00,52.7,28.4,30.07,SSE,158,0.0,0.0,39,0.00,CLR,,0.00,WeatherDisplay:10.37,2013-04-28 05:34:00,
2013-04-28 01:35:00,52.7,28.4,30.07,SSE,158,0.0,0.0,39,0.00,CLR,,0.00,WeatherDisplay:10.37,2013-04-28 05:35:00,
2013-04-28 01:39:00,52.3,28.1,30.04,SSE,158,0.0,0.0,39,0.00,CLR,,0.00,WeatherDisplay:10.37,2013-04-28 05:39:00,
2013-04-28 01:40:00,52.3,28.1,30.04,SSE,158,0.0,0.0,39,0.00,CLR,,0.00,WeatherDisplay:10.37,2013-04-28 05:40:00,
2013-04-28 01:41:00,52.3,28.1,30.04,SSE,158,0.0,0.0,39,0.00,CLR,,0.00,WeatherDisplay:10.37,2013-04-28 05:41:00,
2013-04-28 01:44:00,52.0,27.8,30.04,SSE,158,0.0,0.0,39,0.00,CLR,,0.00,WeatherDisplay:10.37,2013-04-28 05:44:00,
2013-04-28 01:45:00,52.0,27.8,30.04,SSE,158,0.0,0.0,39,0.00,CLR,,0.00,WeatherDisplay:10.37,2013-04-28 05:45:00,
2013-04-28 01:46:00,52.0,27.8,30.04,SSE,158,0.0,0.0,39,0.00,CLR,,0.00,WeatherDisplay:10.37,2013-04-28 05:46:00,
2013-04-28 01:49:00,51.8,27.6,30.04,SSE,158,0.0,0.0,39,0.00,CLR,,0.00,WeatherDisplay:10.37,2013-04-28 05:49:00,
2013-04-28 01:50:00,51.8,27.6,30.04,SSE,158,0.0,0.0,39,0.00,CLR,,0.00,WeatherDisplay:10.37,2013-04-28 05:50:00,
2013-04-28 01:51:00,51.8,27.6,30.04,SSE,158,0.0,0.0,39,0.00,CLR,,0.00,WeatherDisplay:10.37,2013-04-28 05:51:00,
2013-04-28 01:55:00,51.6,28.1,30.04,SSE,158,0.0,0.0,40,0.00,CLR,,0.00,WeatherDisplay:10.37,2013-04-28 05:55:00,
2013-04-28 01:56:00,51.4,27.9,30.04,SSE,158,0.0,0.0,40,0.00,CLR,,0.00,WeatherDisplay:10.37,2013-04-28 05:56:00,
2013-04-28 01:57:00,51.3,27.7,30.04,SSE,158,0.0,0.0,40,0.00,CLR,,0.00,WeatherDisplay:10.37,2013-04-28 05:57:00,
2013-04-28 02:00:00,51.3,27.7,30.04,SSE,158,0.0,0.0,40,0.00,CLR,,0.00,WeatherDisplay:10.37,2013-04-28 06:00:00,
2013-04-28 02:01:00,51.4,28.5,30.04,SSE,158,0.0,0.0,41,0.00,CLR,,0.00,WeatherDisplay:10.37,2013-04-28 06:01:00,
2013-04-28 02:02:00,51.4,27.9,30.04,SSE,158,0.0,0.0,40,0.00,CLR,,0.00,WeatherDisplay:10.37,2013-04-28 06:02:00,
2013-04-28 02:05:00,51.6,28.7,30.04,SSE,158,0.0,0.0,41,0.00,CLR,,0.00,WeatherDisplay:10.37,2013-04-28 06:05:00,
2013-04-28 02:06:00,51.6,28.7,30.04,SSE,158,0.0,0.0,41,0.00,CLR,,0.00,WeatherDisplay:10.37,2013-04-28 06:06:00,
2013-04-28 02:08:00,51.4,28.5,30.04,SSE,158,0.0,0.0,41,0.00,CLR,,0.00,WeatherDisplay:10.37,2013-04-28 06:08:00,
2013-04-28 02:10:00,51.4,28.5,30.04,SSE,158,0.0,0.0,41,0.00,CLR,,0.00,WeatherDisplay:10.37,2013-04-28 06:10:00,
2013-04-28 02:12:00,51.3,28.3,30.04,SSE,158,0.0,0.0,41,0.00,CLR,,0.00,WeatherDisplay:10.37,2013-04-28 06:12:00,
2013-04-28 02:13:00,51.3,28.3,30.04,SSE,158,0.0,0.0,41,0.00,CLR,,0.00,WeatherDisplay:10.37,2013-04-28 06:13:00,
2013-04-28 02:15:00,51.1,28.2,30.04,SSE,158,0.0,0.0,41,0.00,CLR,,0.00,WeatherDisplay:10.37,2013-04-28 06:15:00,
2013-04-28 02:16:00,51.1,28.2,30.04,SSE,158,0.0,0.0,41,0.00,CLR,,0.00,WeatherDisplay:10.37,2013-04-28 06:16:00,
2013-04-28 02:17:00,51.1,28.2,30.04,SSE,158,0.0,0.0,41,0.00,CLR,,0.00,WeatherDisplay:10.37,2013-04-28 06:17:00,
2013-04-28 02:18:00,51.3,28.9,30.04,SSE,158,0.0,0.0,42,0.00,CLR,,0.00,WeatherDisplay:10.37,2013-04-28 06:18:00,
2013-04-28 02:20:00,51.3,28.9,30.04,SSE,158,0.0,0.0,42,0.00,CLR,,0.00,WeatherDisplay:10.37,2013-04-28 06:20:00,
2013-04-28 02:21:00,51.3,28.9,30.04,SSE,158,0.0,0.0,42,0.00,CLR,,0.00,WeatherDisplay:10.37,2013-04-28 06:21:00,
2013-04-28 02:22:00,51.3,28.9,30.04,SSE,158,0.0,0.0,42,0.00,CLR,,0.00,WeatherDisplay:10.37,2013-04-28 06:22:00,
2013-04-28 02:23:00,51.3,28.9,30.04,SSE,158,0.0,0.0,42,0.00,CLR,,0.00,WeatherDisplay:10.37,2013-04-28 06:23:00,
2013-04-28 02:25:00,50.9,28.6,30.04,SSE,158,0.0,0.0,42,0.00,CLR,,0.00,WeatherDisplay:10.37,2013-04-28 06:25:00,
2013-04-28 02:26:00,50.9,28.6,30.04,SSE,158,0.0,0.0,42,0.00,CLR,,0.00,WeatherDisplay:10.37,2013-04-28 06:26:00,
2013-04-28 02:27:00,50.9,28.6,30.04,SSE,158,0.0,0.0,42,0.00,CLR,,0.00,WeatherDisplay:10.37,2013-04-28 06:27:00,
2013-04-28 02:28:00,50.9,28.6,30.04,SSE,158,0.0,0.0,42,0.00,CLR,,0.00,WeatherDisplay:10.37,2013-04-28 06:28:00,
2013-04-28 02:30:00,50.9,28.6,30.04,WSW,248,0.0,0.0,42,0.00,CLR,,0.00,WeatherDisplay:10.37,2013-04-28 06:30:00,
2013-04-28 02:31:00,50.9,28.6,30.04,WSW,248,0.0,0.0,42,0.00,CLR,,0.00,WeatherDisplay:10.37,2013-04-28 06:31:00,
2013-04-28 02:32:00,50.7,28.4,30.04,West,270,0.0,0.0,42,0.00,CLR,,0.00,WeatherDisplay:10.37,2013-04-28 06:32:00,
2013-04-28 02:33:00,50.9,28.6,30.04,WSW,248,0.0,0.0,42,0.00,CLR,,0.00,WeatherDisplay:10.37,2013-04-28 06:33:00,
2013-04-28 02:35:00,51.1,29.3,30.04,WSW,248,0.0,0.0,43,0.00,CLR,,0.00,WeatherDisplay:10.37,2013-04-28 06:35:00,
2013-04-28 02:36:00,51.1,29.3,30.04,SSW,202,0.0,0.0,43,0.00,CLR,,0.00,WeatherDisplay:10.37,2013-04-28 06:36:00,
2013-04-28 02:37:00,51.1,29.3,30.04,South,180,0.0,0.0,43,0.00,CLR,,0.00,WeatherDisplay:10.37,2013-04-28 06:37:00,
2013-04-28 02:38:00,51.3,29.5,30.04,SSW,202,0.0,0.0,43,0.00,CLR,,0.00,WeatherDisplay:10.37,2013-04-28 06:38:00,
2013-04-28 02:40:00,51.3,29.5,30.04,SW,225,0.0,0.0,43,0.00,CLR,,0.00,WeatherDisplay:10.37,2013-04-28 06:40:00,
2013-04-28 02:41:00,51.1,29.3,30.04,SW,225,0.0,0.0,43,0.00,CLR,,0.00,WeatherDisplay:10.37,2013-04-28 06:41:00,
2013-04-28 02:42:00,51.1,29.3,30.04,SW,225,0.0,0.0,43,0.00,CLR,,0.00,WeatherDisplay:10.37,2013-04-28 06:42:00,
2013-04-28 02:43:00,51.1,29.3,30.04,SW,225,0.0,0.0,43,0.00,CLR,,0.00,WeatherDisplay:10.37,2013-04-28 06:43:00,
2013-04-28 02:44:00,51.1,29.3,30.04,SW,225,0.0,0.0,43,0.00,CLR,,0.00,WeatherDisplay:10.37,2013-04-28 06:44:00,
2013-04-28 02:47:00,51.1,29.3,30.04,SW,225,0.0,0.0,43,0.00,CLR,,0.00,WeatherDisplay:10.37,2013-04-28 06:47:00,
2013-04-28 02:48:00,50.9,29.2,30.04,SSW,202,0.0,0.0,43,0.00,CLR,,0.00,WeatherDisplay:10.37,2013-04-28 06:48:00,
2013-04-28 02:49:00,51.1,29.3,30.04,SSW,202,0.0,0.0,43,0.00,CLR,,0.00,WeatherDisplay:10.37,2013-04-28 06:49:00,
2013-04-28 02:52:00,51.1,29.3,30.04,SSW,202,0.0,0.0,43,0.00,CLR,,0.00,WeatherDisplay:10.37,2013-04-28 06:52:00,
2013-04-28 02:53:00,51.1,29.3,30.01,SSW,202,0.0,0.0,43,0.00,CLR,,0.00,WeatherDisplay:10.37,2013-04-28 06:53:00,
2013-04-28 02:54:00,51.1,29.3,30.01,SSW,202,0.0,0.0,43,0.00,CLR,,0.00,WeatherDisplay:10.37,2013-04-28 06:54:00,
2013-04-28 02:57:00,51.1,29.3,30.01,SSW,202,0.0,0.0,43,0.00,CLR,,0.00,WeatherDisplay:10.37,2013-04-28 06:57:00,
2013-04-28 02:58:00,51.1,29.3,30.01,SSW,202,0.0,0.0,43,0.00,CLR,,0.00,WeatherDisplay:10.37,2013-04-28 06:58:00,
2013-04-28 02:59:00,51.1,29.3,30.01,SSW,202,0.0,0.0,43,0.00,CLR,,0.00,WeatherDisplay:10.37,2013-04-28 06:59:00,
2013-04-28 03:02:00,51.1,29.3,30.01,SSW,202,0.0,0.0,43,0.00,CLR,,0.00,WeatherDisplay:10.37,2013-04-28 07:02:00,
2013-04-28 03:03:00,51.1,29.3,30.01,SSW,202,0.0,0.0,43,0.00,CLR,,0.00,WeatherDisplay:10.37,2013-04-28 07:03:00,
2013-04-28 03:04:00,51.1,29.3,30.01,SSW,202,0.0,0.0,43,0.00,CLR,,0.00,WeatherDisplay:10.37,2013-04-28 07:04:00,
2013-04-28 03:07:00,51.1,29.3,30.01,WSW,248,0.0,0.0,43,0.00,CLR,,0.00,WeatherDisplay:10.37,2013-04-28 07:07:00,
2013-04-28 03:08:00,51.1,29.3,30.01,WSW,248,0.0,0.0,43,0.00,CLR,,0.00,WeatherDisplay:10.37,2013-04-28 07:08:00,
2013-04-28 03:09:00,51.1,29.3,30.01,WSW,248,0.0,0.0,43,0.00,CLR,,0.00,WeatherDisplay:10.37,2013-04-28 07:09:00,
2013-04-28 03:10:00,51.1,29.3,30.01,WSW,248,0.0,0.0,43,0.00,CLR,,0.00,WeatherDisplay:10.37,2013-04-28 07:10:00,
2013-04-28 03:13:00,51.1,29.3,30.01,SW,225,0.0,0.0,43,0.00,CLR,,0.00,WeatherDisplay:10.37,2013-04-28 07:13:00,
2013-04-28 03:15:00,51.1,29.3,30.01,WNW,292,1.1,0.0,43,0.00,CLR,,0.00,WeatherDisplay:10.37,2013-04-28 07:15:00,
2013-04-28 03:18:00,51.1,29.3,30.01,WSW,248,0.0,0.0,43,0.00,CLR,,0.00,WeatherDisplay:10.37,2013-04-28 07:18:00,
2013-04-28 03:19:00,51.1,29.3,30.01,WSW,248,1.1,0.0,43,0.00,CLR,,0.00,WeatherDisplay:10.37,2013-04-28 07:19:00,
2013-04-28 03:20:00,51.1,29.3,30.01,SSE,158,1.1,0.0,43,0.00,CLR,,0.00,WeatherDisplay:10.37,2013-04-28 07:20:00,
2013-04-28 03:23:00,50.9,29.2,30.01,SW,225,0.0,0.0,43,0.00,CLR,,0.00,WeatherDisplay:10.37,2013-04-28 07:23:00,
2013-04-28 03:24:00,50.9,29.2,30.04,SW,225,0.0,0.0,43,0.00,CLR,,0.00,WeatherDisplay:10.37,2013-04-28 07:24:00,
2013-04-28 03:25:00,50.9,29.2,30.04,SW,225,0.0,0.0,43,0.00,CLR,,0.00,WeatherDisplay:10.37,2013-04-28 07:25:00,
2013-04-28 03:28:00,51.1,29.3,30.04,WNW,292,0.0,0.0,43,0.00,CLR,,0.00,WeatherDisplay:10.37,2013-04-28 07:28:00,
2013-04-28 03:29:00,51.1,29.3,30.04,West,270,0.0,0.0,43,0.00,CLR,,0.00,WeatherDisplay:10.37,2013-04-28 07:29:00,
2013-04-28 03:30:00,51.1,29.3,30.04,SW,225,0.0,0.0,43,0.00,CLR,,0.00,WeatherDisplay:10.37,2013-04-28 07:30:00,
2013-04-28 03:31:00,51.1,29.3,30.04,SW,225,0.0,0.0,43,0.00,CLR,,0.00,WeatherDisplay:10.37,2013-04-28 07:31:00,
2013-04-28 03:33:00,51.1,29.3,30.04,SW,225,0.0,0.0,43,0.00,CLR,,0.00,WeatherDisplay:10.37,2013-04-28 07:33:00,
2013-04-28 03:34:00,51.1,29.3,30.04,SW,225,0.0,0.0,43,0.00,CLR,,0.00,WeatherDisplay:10.37,2013-04-28 07:34:00,
2013-04-28 03:35:00,51.1,29.3,30.04,SW,225,0.0,0.0,43,0.00,CLR,,0.00,WeatherDisplay:10.37,2013-04-28 07:35:00,
2013-04-28 03:36:00,51.3,28.9,30.04,SW,225,0.0,0.0,42,0.00,CLR,,0.00,WeatherDisplay:10.37,2013-04-28 07:36:00,
2013-04-28 03:38:00,51.1,28.8,30.04,NW,315,0.0,0.0,42,0.00,CLR,,0.00,WeatherDisplay:10.37,2013-04-28 07:38:00,
2013-04-28 03:39:00,50.9,28.6,30.04,NW,315,0.0,0.0,42,0.00,CLR,,0.00,WeatherDisplay:10.37,2013-04-28 07:39:00,
2013-04-28 03:41:00,50.9,28.6,30.04,WNW,292,0.0,0.0,42,0.00,CLR,,0.00,WeatherDisplay:10.37,2013-04-28 07:41:00,
2013-04-28 03:43:00,50.9,28.6,30.04,SSW,202,0.0,0.0,42,0.00,CLR,,0.00,WeatherDisplay:10.37,2013-04-28 07:43:00,
2013-04-28 03:45:00,50.9,28.6,30.04,WNW,292,0.0,0.0,42,0.00,CLR,,0.00,WeatherDisplay:10.37,2013-04-28 07:45:00,
2013-04-28 03:46:00,50.9,28.6,30.04,West,270,0.0,0.0,42,0.00,CLR,,0.00,WeatherDisplay:10.37,2013-04-28 07:46:00,
2013-04-28 03:48:00,50.9,28.6,30.04,SSE,158,0.0,0.0,42,0.00,CLR,,0.00,WeatherDisplay:10.37,2013-04-28 07:48:00,
2013-04-28 03:50:00,51.1,28.8,30.04,South,180,0.0,0.0,42,0.00,CLR,,0.00,WeatherDisplay:10.37,2013-04-28 07:50:00,
2013-04-28 03:51:00,51.1,28.8,30.04,South,180,0.0,0.0,42,0.00,CLR,,0.00,WeatherDisplay:10.37,2013-04-28 07:51:00,
2013-04-28 03:53:00,51.1,28.8,30.01,SW,225,0.0,0.0,42,0.00,CLR,,0.00,WeatherDisplay:10.37,2013-04-28 07:53:00,
2013-04-28 03:55:00,51.1,28.8,30.01,WNW,292,0.0,0.0,42,0.00,CLR,,0.00,WeatherDisplay:10.37,2013-04-28 07:55:00,
2013-04-28 03:56:00,51.1,28.8,30.01,WSW,248,0.0,0.0,42,0.00,CLR,,0.00,WeatherDisplay:10.37,2013-04-28 07:56:00,
2013-04-28 03:57:00,51.1,28.2,30.01,WNW,292,0.0,0.0,41,0.00,CLR,,0.00,WeatherDisplay:10.37,2013-04-28 07:57:00,
2013-04-28 03:58:00,51.1,28.2,30.01,SSE,158,0.0,0.0,41,0.00,CLR,,0.00,WeatherDisplay:10.37,2013-04-28 07:58:00,
2013-04-28 04:00:00,51.1,28.2,30.01,SSE,158,0.0,0.0,41,0.00,CLR,,0.00,WeatherDisplay:10.37,2013-04-28 08:00:00,
2013-04-28 04:01:00,51.1,28.2,30.01,SSE,158,0.0,0.0,41,0.00,CLR,,0.00,WeatherDisplay:10.37,2013-04-28 08:01:00,
2013-04-28 04:02:00,51.1,28.2,30.01,SSE,158,0.0,0.0,41,0.00,CLR,,0.00,WeatherDisplay:10.37,2013-04-28 08:02:00,
2013-04-28 04:04:00,51.1,28.2,30.01,SSW,202,0.0,0.0,41,0.00,CLR,,0.00,WeatherDisplay:10.37,2013-04-28 08:04:00,
2013-04-28 04:06:00,51.1,28.2,30.01,SSW,202,0.0,0.0,41,0.00,CLR,,0.00,WeatherDisplay:10.37,2013-04-28 08:06:00,
2013-04-28 04:07:00,51.3,28.3,30.01,South,180,0.0,0.0,41,0.00,CLR,,0.00,WeatherDisplay:10.37,2013-04-28 08:07:00,
2013-04-28 04:08:00,51.1,28.2,30.01,SW,225,0.0,0.0,41,0.00,CLR,,0.00,WeatherDisplay:10.37,2013-04-28 08:08:00,
2013-04-28 04:09:00,51.1,28.2,30.01,SSW,202,0.0,0.0,41,0.00,CLR,,0.00,WeatherDisplay:10.37,2013-04-28 08:09:00,
2013-04-28 04:11:00,51.1,28.2,30.01,SSW,202,0.0,0.0,41,0.00,CLR,,0.00,WeatherDisplay:10.37,2013-04-28 08:11:00,
2013-04-28 04:12:00,51.1,28.2,30.01,WSW,248,0.0,0.0,41,0.00,CLR,,0.00,WeatherDisplay:10.37,2013-04-28 08:12:00,
2013-04-28 04:13:00,51.1,28.2,30.01,SW,225,0.0,0.0,41,0.00,CLR,,0.00,WeatherDisplay:10.37,2013-04-28 08:13:00,
2013-04-28 04:14:00,51.1,28.2,30.01,SW,225,0.0,0.0,41,0.00,CLR,,0.00,WeatherDisplay:10.37,2013-04-28 08:14:00,
2013-04-28 04:16:00,51.1,28.2,30.01,SSE,158,0.0,0.0,41,0.00,CLR,,0.00,WeatherDisplay:10.37,2013-04-28 08:16:00,
2013-04-28 04:17:00,51.1,28.2,30.01,SSE,158,0.0,0.0,41,0.00,CLR,,0.00,WeatherDisplay:10.37,2013-04-28 08:17:00,
2013-04-28 04:18:00,51.1,28.2,30.01,SSE,158,0.0,0.0,41,0.00,CLR,,0.00,WeatherDisplay:10.37,2013-04-28 08:18:00,
2013-04-28 04:19:00,51.1,28.2,30.01,SSE,158,0.0,0.0,41,0.00,CLR,,0.00,WeatherDisplay:10.37,2013-04-28 08:19:00,
2013-04-28 04:20:00,51.1,28.2,30.01,SSE,158,0.0,0.0,41,0.00,CLR,,0.00,WeatherDisplay:10.37,2013-04-28 08:20:00,
2013-04-28 04:22:00,51.1,28.2,30.01,SSE,158,0.0,0.0,41,0.00,CLR,,0.00,WeatherDisplay:10.37,2013-04-28 08:22:00,
2013-04-28 04:23:00,51.3,28.3,30.01,SSE,158,0.0,0.0,41,0.00,CLR,,0.00,WeatherDisplay:10.37,2013-04-28 08:23:00,
2013-04-28 04:24:00,51.3,28.3,30.04,SSE,158,0.0,0.0,41,0.00,CLR,,0.00,WeatherDisplay:10.37,2013-04-28 08:24:00,
2013-04-28 04:25:00,51.3,28.3,30.04,SSE,158,0.0,0.0,41,0.00,CLR,,0.00,WeatherDisplay:10.37,2013-04-28 08:25:00,
2013-04-28 04:27:00,51.3,28.3,30.04,SSE,158,0.0,0.0,41,0.00,CLR,,0.00,WeatherDisplay:10.37,2013-04-28 08:27:00,
2013-04-28 04:28:00,51.3,28.3,30.04,SSE,158,0.0,0.0,41,0.00,CLR,,0.00,WeatherDisplay:10.37,2013-04-28 08:28:00,
2013-04-28 04:29:00,51.3,28.3,30.04,SSE,158,0.0,0.0,41,0.00,CLR,,0.00,WeatherDisplay:10.37,2013-04-28 08:29:00,
2013-04-28 04:31:00,51.3,28.3,30.04,SSE,158,0.0,0.0,41,0.00,CLR,,0.00,WeatherDisplay:10.37,2013-04-28 08:31:00,
2013-04-28 04:32:00,51.1,28.2,30.04,SSE,158,0.0,0.0,41,0.00,CLR,,0.00,WeatherDisplay:10.37,2013-04-28 08:32:00,
2013-04-28 04:33:00,51.1,28.2,30.04,SSE,158,0.0,0.0,41,0.00,CLR,,0.00,WeatherDisplay:10.37,2013-04-28 08:33:00,
2013-04-28 04:34:00,51.1,28.2,30.04,SSE,158,0.0,0.0,41,0.00,CLR,,0.00,WeatherDisplay:10.37,2013-04-28 08:34:00,
2013-04-28 04:36:00,51.1,28.2,30.04,SSE,158,0.0,0.0,41,0.00,CLR,,0.00,WeatherDisplay:10.37,2013-04-28 08:36:00,
2013-04-28 04:37:00,51.1,28.2,30.04,SSE,158,0.0,0.0,41,0.00,CLR,,0.00,WeatherDisplay:10.37,2013-04-28 08:37:00,
2013-04-28 04:38:00,51.1,28.2,30.04,SSE,158,0.0,0.0,41,0.00,CLR,,0.00,WeatherDisplay:10.37,2013-04-28 08:38:00,
2013-04-28 04:39:00,51.1,28.2,30.04,SSE,158,0.0,0.0,41,0.00,CLR,,0.00,WeatherDisplay:10.37,2013-04-28 08:39:00,
2013-04-28 04:41:00,51.1,28.2,30.04,SSE,158,0.0,0.0,41,0.00,CLR,,0.00,WeatherDisplay:10.37,2013-04-28 08:41:00,
2013-04-28 04:42:00,51.1,28.2,30.04,SW,225,0.0,0.0,41,0.00,CLR,,0.00,WeatherDisplay:10.37,2013-04-28 08:42:00,
2013-04-28 04:43:00,51.1,28.2,30.04,SSW,202,0.0,0.0,41,0.00,CLR,,0.00,WeatherDisplay:10.37,2013-04-28 08:43:00,
2013-04-28 04:44:00,51.1,28.2,30.04,SSW,202,0.0,0.0,41,0.00,CLR,,0.00,WeatherDisplay:10.37,2013-04-28 08:44:00,
2013-04-28 04:46:00,51.1,28.2,30.04,WSW,248,0.0,0.0,41,0.00,CLR,,0.00,WeatherDisplay:10.37,2013-04-28 08:46:00,
2013-04-28 04:47:00,51.1,28.2,30.04,SSW,202,0.0,0.0,41,0.00,CLR,,0.00,WeatherDisplay:10.37,2013-04-28 08:47:00,
2013-04-28 04:48:00,51.1,28.2,30.04,WSW,248,0.0,0.0,41,0.00,CLR,,0.00,WeatherDisplay:10.37,2013-04-28 08:48:00,
2013-04-28 04:49:00,51.1,28.2,30.04,South,180,0.0,0.0,41,0.00,CLR,,0.00,WeatherDisplay:10.37,2013-04-28 08:49:00,
2013-04-28 04:51:00,51.1,28.2,30.04,SW,225,0.0,0.0,41,0.00,CLR,,0.00,WeatherDisplay:10.37,2013-04-28 08:51:00,
2013-04-28 04:52:00,51.1,28.2,30.04,South,180,0.0,0.0,41,0.00,CLR,,0.00,WeatherDisplay:10.37,2013-04-28 08:52:00,
2013-04-28 04:54:00,51.4,27.9,30.04,South,180,0.0,0.0,40,0.00,CLR,,0.00,WeatherDisplay:10.37,2013-04-28 08:54:00,
2013-04-28 04:56:00,51.4,27.9,30.04,WSW,248,1.1,0.0,40,0.00,CLR,,0.00,WeatherDisplay:10.37,2013-04-28 08:56:00,
2013-04-28 04:57:00,51.4,27.9,30.04,WSW,248,0.0,0.0,40,0.00,CLR,,0.00,WeatherDisplay:10.37,2013-04-28 08:57:00,
2013-04-28 04:59:00,51.4,27.9,30.04,WSW,248,0.0,0.0,40,0.00,CLR,,0.00,WeatherDisplay:10.37,2013-04-28 08:59:00,
2013-04-28 05:00:00,51.4,27.9,30.04,SW,225,0.0,0.0,40,0.00,CLR,,0.00,WeatherDisplay:10.37,2013-04-28 09:00:00,
2013-04-28 05:01:00,51.4,27.9,30.04,SSW,202,0.0,0.0,40,0.00,CLR,,0.00,WeatherDisplay:10.37,2013-04-28 09:01:00,
2013-04-28 05:02:00,51.4,27.9,30.04,WSW,248,0.0,0.0,40,0.00,CLR,,0.00,WeatherDisplay:10.37,2013-04-28 09:02:00,
2013-04-28 05:04:00,51.4,27.9,30.04,SW,225,0.0,0.0,40,0.00,CLR,,0.00,WeatherDisplay:10.37,2013-04-28 09:04:00,
2013-04-28 05:05:00,51.4,27.9,30.04,SSW,202,0.0,0.0,40,0.00,CLR,,0.00,WeatherDisplay:10.37,2013-04-28 09:05:00,
2013-04-28 05:06:00,51.3,27.7,30.04,SSW,202,0.0,0.0,40,0.00,CLR,,0.00,WeatherDisplay:10.37,2013-04-28 09:06:00,
2013-04-28 05:07:00,51.3,27.7,30.04,WSW,248,0.0,0.0,40,0.00,CLR,,0.00,WeatherDisplay:10.37,2013-04-28 09:07:00,
2013-04-28 05:09:00,51.3,27.7,30.01,SSW,202,0.0,0.0,40,0.00,CLR,,0.00,WeatherDisplay:10.37,2013-04-28 09:09:00,
2013-04-28 05:10:00,51.3,27.7,30.01,SSW,202,0.0,0.0,40,0.00,CLR,,0.00,WeatherDisplay:10.37,2013-04-28 09:10:00,
2013-04-28 05:12:00,51.3,27.7,30.01,SSW,202,0.0,0.0,40,0.00,CLR,,0.00,WeatherDisplay:10.37,2013-04-28 09:12:00,
2013-04-28 05:14:00,51.3,27.7,30.01,South,180,0.0,0.0,40,0.00,CLR,,0.00,WeatherDisplay:10.37,2013-04-28 09:14:00,
2013-04-28 05:15:00,51.3,27.7,30.01,South,180,0.0,0.0,40,0.00,CLR,,0.00,WeatherDisplay:10.37,2013-04-28 09:15:00,
2013-04-28 05:17:00,51.3,27.7,30.01,South,180,0.0,0.0,40,0.00,CLR,,0.00,WeatherDisplay:10.37,2013-04-28 09:17:00,
2013-04-28 05:19:00,51.3,27.7,30.01,South,180,0.0,0.0,40,0.00,CLR,,0.00,WeatherDisplay:10.37,2013-04-28 09:19:00,
2013-04-28 05:20:00,51.3,27.7,30.01,South,180,0.0,0.0,40,0.00,CLR,,0.00,WeatherDisplay:10.37,2013-04-28 09:20:00,
2013-04-28 05:21:00,51.3,27.7,30.01,South,180,0.0,0.0,40,0.00,CLR,,0.00,WeatherDisplay:10.37,2013-04-28 09:21:00,
2013-04-28 05:22:00,51.3,27.7,30.01,South,180,0.0,0.0,40,0.00,CLR,,0.00,WeatherDisplay:10.37,2013-04-28 09:22:00,
2013-04-28 05:25:00,51.3,27.7,30.04,South,180,0.0,0.0,40,0.00,CLR,,0.00,WeatherDisplay:10.37,2013-04-28 09:25:00,
2013-04-28 05:26:00,51.3,27.7,30.04,SSW,202,0.0,0.0,40,0.00,CLR,,0.00,WeatherDisplay:10.37,2013-04-28 09:26:00,
2013-04-28 05:27:00,51.3,27.7,30.04,SSW,202,0.0,0.0,40,0.00,CLR,,0.00,WeatherDisplay:10.37,2013-04-28 09:27:00,
2013-04-28 05:28:00,51.3,27.7,30.04,SW,225,0.0,0.0,40,0.00,CLR,,0.00,WeatherDisplay:10.37,2013-04-28 09:28:00,
2013-04-28 05:30:00,51.3,27.7,30.04,WSW,248,0.0,0.0,40,0.00,CLR,,0.00,WeatherDisplay:10.37,2013-04-28 09:30:00,
2013-04-28 05:31:00,51.3,27.7,30.04,South,180,0.0,0.0,40,0.00,CLR,,0.00,WeatherDisplay:10.37,2013-04-28 09:31:00,
2013-04-28 05:32:00,51.3,27.7,30.04,SSW,202,0.0,0.0,40,0.00,CLR,,0.00,WeatherDisplay:10.37,2013-04-28 09:32:00,
2013-04-28 05:33:00,51.3,27.7,30.04,WSW,248,0.0,0.0,40,0.00,CLR,,0.00,WeatherDisplay:10.37,2013-04-28 09:33:00,
2013-04-28 05:35:00,51.3,27.7,30.04,South,180,0.0,0.0,40,0.00,CLR,,0.00,WeatherDisplay:10.37,2013-04-28 09:35:00,
2013-04-28 05:36:00,51.3,27.7,30.04,South,180,0.0,0.0,40,0.00,CLR,,0.00,WeatherDisplay:10.37,2013-04-28 09:36:00,
2013-04-28 05:38:00,51.3,27.7,30.04,SSW,202,0.0,0.0,40,0.00,CLR,,0.00,WeatherDisplay:10.37,2013-04-28 09:38:00,
2013-04-28 05:41:00,51.3,27.7,30.04,SSW,202,0.0,0.0,40,0.00,CLR,,0.00,WeatherDisplay:10.37,2013-04-28 09:41:00,
2013-04-28 05:42:00,51.3,27.7,30.04,SSW,202,0.0,0.0,40,0.00,CLR,,0.00,WeatherDisplay:10.37,2013-04-28 09:42:00,
2013-04-28 05:43:00,51.3,27.7,30.04,SSW,202,0.0,0.0,40,0.00,CLR,,0.00,WeatherDisplay:10.37,2013-04-28 09:43:00,
2013-04-28 05:46:00,51.3,27.7,30.04,SSW,202,0.0,0.0,40,0.00,CLR,,0.00,WeatherDisplay:10.37,2013-04-28 09:46:00,
2013-04-28 05:47:00,51.3,27.7,30.04,SSW,202,0.0,0.0,40,0.00,CLR,,0.00,WeatherDisplay:10.37,2013-04-28 09:47:00,
2013-04-28 05:48:00,51.3,27.7,30.04,SSW,202,0.0,0.0,40,0.00,CLR,,0.00,WeatherDisplay:10.37,2013-04-28 09:48:00,
2013-04-28 05:49:00,51.1,27.6,30.04,SSW,202,0.0,0.0,40,0.00,CLR,,0.00,WeatherDisplay:10.37,2013-04-28 09:49:00,
2013-04-28 05:51:00,51.1,27.6,30.04,SW,225,0.0,0.0,40,0.00,CLR,,0.00,WeatherDisplay:10.37,2013-04-28 09:51:00,
2013-04-28 05:52:00,51.1,27.6,30.04,SW,225,0.0,0.0,40,0.00,CLR,,0.00,WeatherDisplay:10.37,2013-04-28 09:52:00,
2013-04-28 05:53:00,51.1,27.6,30.04,SSW,202,0.0,0.0,40,0.00,CLR,,0.00,WeatherDisplay:10.37,2013-04-28 09:53:00,
2013-04-28 05:54:00,51.1,27.6,30.04,SW,225,0.0,0.0,40,0.00,CLR,,0.00,WeatherDisplay:10.37,2013-04-28 09:54:00,
2013-04-28 05:56:00,50.9,27.4,30.04,South,180,0.0,0.0,40,0.00,CLR,,0.00,WeatherDisplay:10.37,2013-04-28 09:56:00,
2013-04-28 05:57:00,50.7,27.2,30.04,South,180,0.0,0.0,40,0.00,CLR,,0.00,WeatherDisplay:10.37,2013-04-28 09:57:00,
2013-04-28 05:58:00,50.7,27.2,30.04,SSW,202,0.0,0.0,40,0.00,CLR,,0.00,WeatherDisplay:10.37,2013-04-28 09:58:00,
2013-04-28 05:59:00,50.7,27.2,30.04,SSW,202,0.0,0.0,40,0.00,CLR,,0.00,WeatherDisplay:10.37,2013-04-28 09:59:00,
2013-04-28 06:02:00,50.5,27.1,30.04,SSW,202,0.0,0.0,40,0.00,CLR,,0.00,WeatherDisplay:10.37,2013-04-28 10:02:00,
2013-04-28 06:04:00,50.5,27.1,30.04,SSW,202,0.0,0.0,40,0.00,CLR,,0.00,WeatherDisplay:10.37,2013-04-28 10:04:00,
2013-04-28 06:07:00,50.4,26.9,30.04,SSW,202,0.0,0.0,40,0.00,CLR,,0.00,WeatherDisplay:10.37,2013-04-28 10:07:00,
2013-04-28 06:09:00,50.4,26.9,30.04,SSW,202,0.0,0.0,40,0.00,CLR,,0.00,WeatherDisplay:10.37,2013-04-28 10:09:00,
2013-04-28 06:12:00,50.4,26.9,30.04,SW,225,0.0,0.0,40,0.00,CLR,,0.00,WeatherDisplay:10.37,2013-04-28 10:12:00,
2013-04-28 06:13:00,50.2,26.8,30.04,SSW,202,0.0,0.0,40,0.00,CLR,,0.00,WeatherDisplay:10.37,2013-04-28 10:13:00,
2013-04-28 06:14:00,50.2,27.4,30.04,SSW,202,0.0,0.0,41,0.00,CLR,,0.00,WeatherDisplay:10.37,2013-04-28 10:14:00,
2013-04-28 06:15:00,50.2,27.4,30.04,SSW,202,0.0,0.0,41,0.00,CLR,,0.00,WeatherDisplay:10.37,2013-04-28 10:15:00,
2013-04-28 06:17:00,50.2,27.4,30.04,SSE,158,0.0,0.0,41,0.00,CLR,,0.00,WeatherDisplay:10.37,2013-04-28 10:17:00,
2013-04-28 06:18:00,50.2,27.4,30.04,SSE,158,0.0,0.0,41,0.00,CLR,,0.00,WeatherDisplay:10.37,2013-04-28 10:18:00,
2013-04-28 06:20:00,50.2,27.4,30.04,SSE,158,0.0,0.0,41,0.00,CLR,,0.00,WeatherDisplay:10.37,2013-04-28 10:20:00,
2013-04-28 06:22:00,50.0,27.2,30.04,SSE,158,0.0,0.0,41,0.00,CLR,,0.00,WeatherDisplay:10.37,2013-04-28 10:22:00,
2013-04-28 06:23:00,50.0,27.2,30.04,SSE,158,0.0,0.0,41,0.00,CLR,,0.00,WeatherDisplay:10.37,2013-04-28 10:23:00,
2013-04-28 06:25:00,49.8,27.0,30.04,SSE,158,0.0,0.0,41,0.00,CLR,,0.00,WeatherDisplay:10.37,2013-04-28 10:25:00,
2013-04-28 06:28:00,49.6,27.5,30.04,SSE,158,0.0,0.0,42,0.00,CLR,,0.00,WeatherDisplay:10.37,2013-04-28 10:28:00,
2013-04-28 06:30:00,49.6,27.5,30.04,SSE,158,0.0,0.0,42,0.00,CLR,,0.00,WeatherDisplay:10.37,2013-04-28 10:30:00,
2013-04-28 06:31:00,49.6,27.5,30.04,SSE,158,0.0,0.0,42,0.00,CLR,,0.00,WeatherDisplay:10.37,2013-04-28 10:31:00,
2013-04-28 06:33:00,49.8,27.6,30.04,SSE,158,0.0,0.0,42,0.00,CLR,,0.00,WeatherDisplay:10.37,2013-04-28 10:33:00,
2013-04-28 06:35:00,49.8,28.2,30.04,SSE,158,0.0,0.0,43,0.00,CLR,,0.00,WeatherDisplay:10.37,2013-04-28 10:35:00,
2013-04-28 06:36:00,49.8,28.2,30.04,SSE,158,0.0,0.0,43,0.00,CLR,,0.00,WeatherDisplay:10.37,2013-04-28 10:36:00,
2013-04-28 06:38:00,50.0,28.4,30.04,SSE,158,0.0,0.0,43,0.00,CLR,,0.00,WeatherDisplay:10.37,2013-04-28 10:38:00,
2013-04-28 06:41:00,50.2,29.1,30.04,SSW,202,0.0,0.0,44,0.00,CLR,,0.00,WeatherDisplay:10.37,2013-04-28 10:41:00,
2013-04-28 06:43:00,50.2,28.5,30.04,SSW,202,0.0,0.0,43,0.00,CLR,,0.00,WeatherDisplay:10.37,2013-04-28 10:43:00,
2013-04-28 06:44:00,50.2,28.5,30.04,SSW,202,0.0,0.0,43,0.00,CLR,,0.00,WeatherDisplay:10.37,2013-04-28 10:44:00,
2013-04-28 06:46:00,50.4,29.2,30.04,WSW,248,0.0,0.0,44,0.00,CLR,,0.00,WeatherDisplay:10.37,2013-04-28 10:46:00,
2013-04-28 06:48:00,50.9,29.7,30.04,SSW,202,0.0,0.0,44,0.00,CLR,,0.00,WeatherDisplay:10.37,2013-04-28 10:48:00,
2013-04-28 06:49:00,50.9,29.7,30.04,SSW,202,0.0,0.0,44,0.00,CLR,,0.00,WeatherDisplay:10.37,2013-04-28 10:49:00,
2013-04-28 06:51:00,50.9,29.7,30.04,West,270,0.0,0.0,44,0.00,CLR,,0.00,WeatherDisplay:10.37,2013-04-28 10:51:00,
2013-04-28 06:53:00,50.9,29.2,30.04,West,270,0.0,0.0,43,0.00,CLR,,0.00,WeatherDisplay:10.37,2013-04-28 10:53:00,
2013-04-28 06:54:00,50.9,29.2,30.04,West,270,0.0,0.0,43,0.00,CLR,,0.00,WeatherDisplay:10.37,2013-04-28 10:54:00,
2013-04-28 06:55:00,51.1,29.3,30.04,WSW,248,0.0,0.0,43,0.00,CLR,,0.00,WeatherDisplay:10.37,2013-04-28 10:55:00,
2013-04-28 06:56:00,51.3,29.5,30.04,SSW,202,0.0,0.0,43,0.00,CLR,,0.00,WeatherDisplay:10.37,2013-04-28 10:56:00,
2013-04-28 06:58:00,51.4,29.7,30.04,South,180,0.0,0.0,43,0.00,CLR,,0.00,WeatherDisplay:10.37,2013-04-28 10:58:00,
2013-04-28 06:59:00,51.4,29.7,30.04,SSW,202,0.0,0.0,43,0.00,CLR,,0.00,WeatherDisplay:10.37,2013-04-28 10:59:00,
2013-04-28 07:00:00,51.6,29.8,30.04,SSW,202,0.0,0.0,43,0.00,CLR,,0.00,WeatherDisplay:10.37,2013-04-28 11:00:00,
2013-04-28 07:01:00,51.6,29.8,30.04,South,180,0.0,0.0,43,0.00,CLR,,0.00,WeatherDisplay:10.37,2013-04-28 11:01:00,
2013-04-28 07:04:00,51.6,29.8,30.04,SSW,202,0.0,0.0,43,0.00,CLR,,0.00,WeatherDisplay:10.37,2013-04-28 11:04:00,
2013-04-28 07:05:00,51.8,29.4,30.04,SW,225,1.4,0.0,42,0.00,CLR,,0.00,WeatherDisplay:10.37,2013-04-28 11:05:00,
2013-04-28 07:06:00,51.8,29.4,30.04,SW,225,1.1,0.0,42,0.00,CLR,,0.00,WeatherDisplay:10.37,2013-04-28 11:06:00,
2013-04-28 07:07:00,51.8,29.4,30.04,SW,225,1.1,0.0,42,0.00,CLR,,0.00,WeatherDisplay:10.37,2013-04-28 11:07:00,
2013-04-28 07:09:00,52.0,29.6,30.04,West,270,0.0,0.0,42,0.00,CLR,,0.00,WeatherDisplay:10.37,2013-04-28 11:09:00,
2013-04-28 07:10:00,52.2,29.7,30.04,West,270,0.0,0.0,42,0.00,CLR,,0.00,WeatherDisplay:10.37,2013-04-28 11:10:00,
2013-04-28 07:12:00,52.2,29.7,30.04,SSW,202,0.0,0.0,42,0.00,CLR,,0.00,WeatherDisplay:10.37,2013-04-28 11:12:00,
2013-04-28 07:14:00,52.3,29.3,30.04,South,180,0.0,0.0,41,0.00,CLR,,0.00,WeatherDisplay:10.37,2013-04-28 11:14:00,
2013-04-28 07:15:00,52.3,29.3,30.04,South,180,0.0,0.0,41,0.00,CLR,,0.00,WeatherDisplay:10.37,2013-04-28 11:15:00,
2013-04-28 07:16:00,52.3,29.3,30.04,South,180,0.0,0.0,41,0.00,CLR,,0.00,WeatherDisplay:10.37,2013-04-28 11:16:00,
2013-04-28 07:17:00,52.7,29.6,30.04,South,180,0.0,0.0,41,0.00,CLR,,0.00,WeatherDisplay:10.37,2013-04-28 11:17:00,
2013-04-28 07:19:00,52.9,29.8,30.04,South,180,0.0,0.0,41,0.00,CLR,,0.00,WeatherDisplay:10.37,2013-04-28 11:19:00,
2013-04-28 07:20:00,52.9,29.8,30.04,SSW,202,0.0,0.0,41,0.00,CLR,,0.00,WeatherDisplay:10.37,2013-04-28 11:20:00,
2013-04-28 07:21:00,53.1,30.0,30.04,SSW,202,0.0,0.0,41,0.00,CLR,,0.00,WeatherDisplay:10.37,2013-04-28 11:21:00,
2013-04-28 07:22:00,53.1,30.0,30.04,SSW,202,0.0,0.0,41,0.00,CLR,,0.00,WeatherDisplay:10.37,2013-04-28 11:22:00,
2013-04-28 07:23:00,53.1,30.0,30.04,SSW,202,0.0,0.0,41,0.00,CLR,,0.00,WeatherDisplay:10.37,2013-04-28 11:23:00,
2013-04-28 07:24:00,53.2,30.1,30.04,SE,135,0.0,0.0,41,0.00,CLR,,0.00,WeatherDisplay:10.37,2013-04-28 11:24:00,
2013-04-28 07:25:00,53.2,30.1,30.04,SW,225,0.0,0.0,41,0.00,CLR,,0.00,WeatherDisplay:10.37,2013-04-28 11:25:00,
2013-04-28 07:26:00,53.2,30.1,30.04,SW,225,0.0,0.0,41,0.00,CLR,,0.00,WeatherDisplay:10.37,2013-04-28 11:26:00,
2013-04-28 07:27:00,53.4,29.7,30.04,SW,225,0.0,0.0,40,0.00,CLR,,0.00,WeatherDisplay:10.37,2013-04-28 11:27:00,
2013-04-28 07:28:00,53.6,29.8,30.04,South,180,0.0,0.0,40,0.00,CLR,,0.00,WeatherDisplay:10.37,2013-04-28 11:28:00,
2013-04-28 07:29:00,53.6,29.8,30.04,South,180,0.0,0.0,40,0.00,CLR,,0.00,WeatherDisplay:10.37,2013-04-28 11:29:00,
2013-04-28 07:30:00,53.8,29.4,30.04,South,180,0.0,0.0,39,0.00,CLR,,0.00,WeatherDisplay:10.37,2013-04-28 11:30:00,
2013-04-28 07:32:00,53.8,29.4,30.04,SW,225,0.0,0.0,39,0.00,CLR,,0.00,WeatherDisplay:10.37,2013-04-28 11:32:00,
2013-04-28 07:33:00,54.0,29.5,30.04,SSW,202,0.0,0.0,39,0.00,CLR,,0.00,WeatherDisplay:10.37,2013-04-28 11:33:00,
2013-04-28 07:34:00,54.1,29.7,30.04,South,180,0.0,0.0,39,0.00,CLR,,0.00,WeatherDisplay:10.37,2013-04-28 11:34:00,
2013-04-28 07:35:00,54.1,29.7,30.04,South,180,0.0,0.0,39,0.00,CLR,,0.00,WeatherDisplay:10.37,2013-04-28 11:35:00,
2013-04-28 07:37:00,54.3,29.9,30.04,South,180,0.0,0.0,39,0.00,CLR,,0.00,WeatherDisplay:10.37,2013-04-28 11:37:00,
2013-04-28 07:38:00,54.3,29.9,30.04,South,180,0.0,0.0,39,0.00,CLR,,0.00,WeatherDisplay:10.37,2013-04-28 11:38:00,
2013-04-28 07:39:00,54.5,29.4,30.04,South,180,0.0,0.0,38,0.00,CLR,,0.00,WeatherDisplay:10.37,2013-04-28 11:39:00,
2013-04-28 07:40:00,54.5,30.0,30.04,South,180,0.0,0.0,39,0.00,CLR,,0.00,WeatherDisplay:10.37,2013-04-28 11:40:00,
2013-04-28 07:42:00,54.7,29.5,30.04,South,180,0.0,0.0,38,0.00,CLR,,0.00,WeatherDisplay:10.37,2013-04-28 11:42:00,
2013-04-28 07:43:00,54.7,29.5,30.04,South,180,0.0,0.0,38,0.00,CLR,,0.00,WeatherDisplay:10.37,2013-04-28 11:43:00,
2013-04-28 07:44:00,54.9,29.7,30.04,South,180,0.0,0.0,38,0.00,CLR,,0.00,WeatherDisplay:10.37,2013-04-28 11:44:00,
2013-04-28 07:45:00,54.9,29.7,30.04,South,180,0.0,0.0,38,0.00,CLR,,0.00,WeatherDisplay:10.37,2013-04-28 11:45:00,
2013-04-28 07:47:00,55.0,29.9,30.04,SSW,202,0.0,0.0,38,0.00,CLR,,0.00,WeatherDisplay:10.37,2013-04-28 11:47:00,
2013-04-28 07:48:00,55.2,30.0,30.04,SSW,202,0.0,0.0,38,0.00,CLR,,0.00,WeatherDisplay:10.37,2013-04-28 11:48:00,
2013-04-28 07:50:00,55.4,29.5,30.04,SSW,202,0.0,0.0,37,0.00,CLR,,0.00,WeatherDisplay:10.37,2013-04-28 11:50:00,
2013-04-28 07:52:00,55.6,29.7,30.04,SSW,202,0.0,0.0,37,0.00,CLR,,0.00,WeatherDisplay:10.37,2013-04-28 11:52:00,
2013-04-28 07:53:00,55.6,29.7,30.04,SSW,202,0.0,0.0,37,0.00,CLR,,0.00,WeatherDisplay:10.37,2013-04-28 11:53:00,
2013-04-28 07:54:00,55.8,29.9,30.04,South,180,0.0,0.0,37,0.00,CLR,,0.00,WeatherDisplay:10.37,2013-04-28 11:54:00,
2013-04-28 07:55:00,55.8,29.9,30.04,South,180,0.0,0.0,37,0.00,CLR,,0.00,WeatherDisplay:10.37,2013-04-28 11:55:00,
2013-04-28 07:58:00,56.1,30.2,30.04,South,180,0.0,0.0,37,0.00,CLR,,0.00,WeatherDisplay:10.37,2013-04-28 11:58:00,
2013-04-28 07:59:00,56.3,30.3,30.04,WSW,248,1.6,0.0,37,0.00,CLR,,0.00,WeatherDisplay:10.37,2013-04-28 11:59:00,
2013-04-28 08:00:00,56.3,30.3,30.04,WSW,248,1.6,0.0,37,0.00,CLR,,0.00,WeatherDisplay:10.37,2013-04-28 12:00:00,
2013-04-28 08:03:00,56.3,30.3,30.04,NW,315,2.3,0.0,37,0.00,CLR,,0.00,WeatherDisplay:10.37,2013-04-28 12:03:00,
2013-04-28 08:04:00,56.5,30.5,30.04,NW,315,2.3,0.0,37,0.00,CLR,,0.00,WeatherDisplay:10.37,2013-04-28 12:04:00,
2013-04-28 08:05:00,56.7,30.7,30.04,WSW,248,0.0,0.0,37,0.00,CLR,,0.00,WeatherDisplay:10.37,2013-04-28 12:05:00,
2013-04-28 08:08:00,56.8,30.8,30.04,WNW,292,0.0,0.0,37,0.00,CLR,,0.00,WeatherDisplay:10.37,2013-04-28 12:08:00,
2013-04-28 08:09:00,57.0,31.0,30.04,WSW,248,1.1,0.0,37,0.00,CLR,,0.00,WeatherDisplay:10.37,2013-04-28 12:09:00,
2013-04-28 08:10:00,57.2,31.1,30.04,SW,225,1.1,0.0,37,0.00,CLR,,0.00,WeatherDisplay:10.37,2013-04-28 12:10:00,
2013-04-28 08:13:00,57.4,30.6,30.04,SSW,202,0.0,0.0,36,0.00,CLR,,0.00,WeatherDisplay:10.37,2013-04-28 12:13:00,
2013-04-28 08:15:00,57.4,30.6,30.04,SW,225,0.0,0.0,36,0.00,CLR,,0.00,WeatherDisplay:10.37,2013-04-28 12:15:00,
2013-04-28 08:16:00,57.7,30.9,30.04,ESE,112,0.0,0.0,36,0.00,CLR,,0.00,WeatherDisplay:10.37,2013-04-28 12:16:00,
2013-04-28 08:18:00,57.9,31.1,30.04,SSW,202,0.0,0.0,36,0.00,CLR,,0.00,WeatherDisplay:10.37,2013-04-28 12:18:00,
2013-04-28 08:20:00,57.9,31.1,30.04,SSW,202,0.0,0.0,36,0.00,CLR,,0.00,WeatherDisplay:10.37,2013-04-28 12:20:00,
2013-04-28 08:21:00,57.9,31.1,30.04,SSW,202,0.0,0.0,36,0.00,CLR,,0.00,WeatherDisplay:10.37,2013-04-28 12:21:00,
2013-04-28 08:24:00,57.9,31.1,30.04,SSW,202,0.0,0.0,36,0.00,CLR,,0.00,WeatherDisplay:10.37,2013-04-28 12:24:00,
2013-04-28 08:25:00,57.9,31.1,30.04,SSW,202,0.0,0.0,36,0.00,CLR,,0.00,WeatherDisplay:10.37,2013-04-28 12:25:00,
2013-04-28 08:26:00,57.9,31.1,30.04,SSW,202,0.0,0.0,36,0.00,CLR,,0.00,WeatherDisplay:10.37,2013-04-28 12:26:00,
2013-04-28 08:29:00,57.9,31.1,30.04,SSW,202,0.0,0.0,36,0.00,CLR,,0.00,WeatherDisplay:10.37,2013-04-28 12:29:00,
2013-04-28 08:30:00,57.9,31.1,30.04,SSW,202,0.0,0.0,36,0.00,CLR,,0.00,WeatherDisplay:10.37,2013-04-28 12:30:00,
2013-04-28 08:31:00,59.5,31.8,30.04,SSW,202,1.1,2.2,35,0.00,CLR,,0.00,WeatherDisplay:10.37,2013-04-28 12:31:00,
2013-04-28 08:34:00,59.7,32.0,30.04,WSW,248,0.0,0.0,35,0.00,CLR,,0.00,WeatherDisplay:10.37,2013-04-28 12:34:00,
2013-04-28 08:35:00,59.7,32.0,30.04,SW,225,0.0,0.0,35,0.00,CLR,,0.00,WeatherDisplay:10.37,2013-04-28 12:35:00,
2013-04-28 08:36:00,59.7,32.0,30.04,West,270,0.0,0.0,35,0.00,CLR,,0.00,WeatherDisplay:10.37,2013-04-28 12:36:00,
2013-04-28 08:37:00,60.3,31.8,30.04,West,270,0.0,0.0,34,0.00,CLR,,0.00,WeatherDisplay:10.37,2013-04-28 12:37:00,
2013-04-28 08:39:00,60.4,31.9,30.04,WSW,248,2.3,2.3,34,0.00,CLR,,0.00,WeatherDisplay:10.37,2013-04-28 12:39:00,
2013-04-28 08:40:00,60.4,31.9,30.04,WSW,248,2.3,2.3,34,0.00,CLR,,0.00,WeatherDisplay:10.37,2013-04-28 12:40:00,
2013-04-28 08:41:00,60.4,31.9,30.04,West,270,2.0,0.0,34,0.00,CLR,,0.00,WeatherDisplay:10.37,2013-04-28 12:41:00,
2013-04-28 08:42:00,60.4,31.9,30.04,WSW,248,2.3,2.3,34,0.00,CLR,,0.00,WeatherDisplay:10.37,2013-04-28 12:42:00,
2013-04-28 08:44:00,60.4,31.9,30.04,West,270,2.3,2.3,34,0.00,CLR,,0.00,WeatherDisplay:10.37,2013-04-28 12:44:00,
2013-04-28 08:45:00,60.4,31.9,30.04,WNW,292,2.3,2.3,34,0.00,CLR,,0.00,WeatherDisplay:10.37,2013-04-28 12:45:00,
2013-04-28 08:46:00,60.4,31.9,30.04,WSW,248,1.1,0.0,34,0.00,CLR,,0.00,WeatherDisplay:10.37,2013-04-28 12:46:00,
2013-04-28 08:47:00,60.4,31.9,30.04,WSW,248,1.1,0.0,34,0.00,CLR,,0.00,WeatherDisplay:10.37,2013-04-28 12:47:00,
2013-04-28 08:50:00,60.6,32.1,30.04,West,270,0.0,0.0,34,0.00,CLR,,0.00,WeatherDisplay:10.37,2013-04-28 12:50:00,
2013-04-28 08:51:00,60.6,32.1,30.04,SW,225,0.0,2.0,34,0.00,CLR,,0.00,WeatherDisplay:10.37,2013-04-28 12:51:00,
2013-04-28 08:52:00,61.0,32.4,30.04,SW,225,0.0,2.0,34,0.00,CLR,,0.00,WeatherDisplay:10.37,2013-04-28 12:52:00,
2013-04-28 08:55:00,61.3,32.7,30.04,WNW,292,3.1,3.1,34,0.00,CLR,,0.00,WeatherDisplay:10.37,2013-04-28 12:55:00,
2013-04-28 08:56:00,61.5,32.9,30.04,West,270,3.5,3.5,34,0.00,CLR,,0.00,WeatherDisplay:10.37,2013-04-28 12:56:00,
2013-04-28 08:58:00,61.7,33.0,30.04,WNW,292,2.4,2.4,34,0.00,CLR,,0.00,WeatherDisplay:10.37,2013-04-28 12:58:00,
2013-04-28 09:00:00,61.9,33.2,30.04,SW,225,2.3,2.3,34,0.00,CLR,,0.00,WeatherDisplay:10.37,2013-04-28 13:00:00,
2013-04-28 09:01:00,61.9,33.2,30.04,SSW,202,0.0,0.0,34,0.00,CLR,,0.00,WeatherDisplay:10.37,2013-04-28 13:01:00,
2013-04-28 09:02:00,62.1,33.3,30.04,WSW,248,1.1,1.1,34,0.00,CLR,,0.00,WeatherDisplay:10.37,2013-04-28 13:02:00,
2013-04-28 09:03:00,62.1,33.3,30.04,SSE,158,1.1,1.1,34,0.00,CLR,,0.00,WeatherDisplay:10.37,2013-04-28 13:03:00,
2013-04-28 09:05:00,62.2,33.5,30.04,SSW,202,5.8,5.8,34,0.00,CLR,,0.00,WeatherDisplay:10.37,2013-04-28 13:05:00,
2013-04-28 09:06:00,62.2,33.5,30.04,SW,225,5.8,0.0,34,0.00,CLR,,0.00,WeatherDisplay:10.37,2013-04-28 13:06:00,
2013-04-28 09:07:00,62.4,33.7,30.04,WNW,292,0.0,0.0,34,0.00,CLR,,0.00,WeatherDisplay:10.37,2013-04-28 13:07:00,
2013-04-28 09:08:00,62.4,32.9,30.04,West,270,3.5,3.5,33,0.00,CLR,,0.00,WeatherDisplay:10.37,2013-04-28 13:08:00,
2013-04-28 09:11:00,62.8,32.5,30.04,West,270,2.6,0.0,32,0.00,CLR,,0.00,WeatherDisplay:10.37,2013-04-28 13:11:00,
2013-04-28 09:12:00,63.0,31.8,30.04,WSW,248,3.5,3.5,31,0.00,CLR,,0.00,WeatherDisplay:10.37,2013-04-28 13:12:00,
2013-04-28 09:13:00,63.0,31.0,30.04,WSW,248,4.0,4.0,30,0.00,CLR,,0.00,WeatherDisplay:10.37,2013-04-28 13:13:00,
2013-04-28 09:16:00,63.3,32.1,30.04,WSW,248,7.4,7.4,31,0.00,CLR,,0.00,WeatherDisplay:10.37,2013-04-28 13:16:00,
2013-04-28 09:17:00,63.5,32.3,30.04,West,270,6.9,6.9,31,0.00,CLR,,0.00,WeatherDisplay:10.37,2013-04-28 13:17:00,
2013-04-28 09:18:00,63.7,32.5,30.04,WSW,248,2.3,0.0,31,0.00,CLR,,0.00,WeatherDisplay:10.37,2013-04-28 13:18:00,
2013-04-28 09:21:00,64.2,33.7,30.04,SW,225,2.3,2.3,32,0.00,CLR,,0.00,WeatherDisplay:10.37,2013-04-28 13:21:00,
2013-04-28 09:23:00,64.4,32.3,30.04,SW,225,2.4,2.4,30,0.00,CLR,,0.00,WeatherDisplay:10.37,2013-04-28 13:23:00,
2013-04-28 09:26:00,64.8,32.6,30.04,SSW,202,8.1,0.0,30,0.00,CLR,,0.00,WeatherDisplay:10.37,2013-04-28 13:26:00,
2013-04-28 09:27:00,64.8,32.6,30.04,SW,225,2.3,2.3,30,0.00,CLR,,0.00,WeatherDisplay:10.37,2013-04-28 13:27:00,
2013-04-28 09:28:00,65.1,33.7,30.04,SSW,202,2.3,0.0,31,0.00,CLR,,0.00,WeatherDisplay:10.37,2013-04-28 13:28:00,
2013-04-28 09:31:00,65.3,32.2,30.04,SW,225,2.3,2.3,29,0.00,CLR,,0.00,WeatherDisplay:10.37,2013-04-28 13:31:00,
2013-04-28 09:32:00,65.3,32.2,30.04,West,270,3.3,3.3,29,0.00,CLR,,0.00,WeatherDisplay:10.37,2013-04-28 13:32:00,
2013-04-28 09:33:00,65.1,31.2,30.04,West,270,3.5,3.5,28,0.00,CLR,,0.00,WeatherDisplay:10.37,2013-04-28 13:33:00,
2013-04-28 09:37:00,65.7,33.4,30.04,WSW,248,2.9,0.0,30,0.00,CLR,,0.00,WeatherDisplay:10.37,2013-04-28 13:37:00,
2013-04-28 09:38:00,65.7,31.6,30.04,SSW,202,2.4,2.4,28,0.00,CLR,,0.00,WeatherDisplay:10.37,2013-04-28 13:38:00,
2013-04-28 09:42:00,66.0,32.0,30.04,WSW,248,2.3,2.3,28,0.00,CLR,,0.00,WeatherDisplay:10.37,2013-04-28 13:42:00,
2013-04-28 09:43:00,66.0,32.8,30.04,SE,135,2.3,0.0,29,0.00,CLR,,0.00,WeatherDisplay:10.37,2013-04-28 13:43:00,
2013-04-28 09:47:00,66.4,32.3,30.04,West,270,7.1,7.1,28,0.00,CLR,,0.00,WeatherDisplay:10.37,2013-04-28 13:47:00,
2013-04-28 09:48:00,66.4,31.4,30.04,WSW,248,1.6,1.6,27,0.00,CLR,,0.00,WeatherDisplay:10.37,2013-04-28 13:48:00,
2013-04-28 09:49:00,66.4,31.4,30.04,WSW,248,1.1,1.1,27,0.00,CLR,,0.00,WeatherDisplay:10.37,2013-04-28 13:49:00,
2013-04-28 09:52:00,66.9,33.6,30.04,West,270,1.6,1.6,29,0.00,CLR,,0.00,WeatherDisplay:10.37,2013-04-28 13:52:00,
2013-04-28 09:53:00,66.9,32.7,30.04,WNW,292,5.8,5.8,28,0.00,CLR,,0.00,WeatherDisplay:10.37,2013-04-28 13:53:00,
2013-04-28 09:54:00,67.1,32.0,30.04,NW,315,0.0,0.0,27,0.00,CLR,,0.00,WeatherDisplay:10.37,2013-04-28 13:54:00,
2013-04-28 09:57:00,67.1,32.0,30.04,WNW,292,2.3,2.3,27,0.00,CLR,,0.00,WeatherDisplay:10.37,2013-04-28 13:57:00,
2013-04-28 09:58:00,67.1,32.0,30.04,SSW,202,3.6,3.6,27,0.00,CLR,,0.00,WeatherDisplay:10.37,2013-04-28 13:58:00,
2013-04-28 10:00:00,67.3,32.1,30.04,WNW,292,3.5,0.0,27,0.00,CLR,,0.00,WeatherDisplay:10.37,2013-04-28 14:00:00,
2013-04-28 10:02:00,67.6,32.4,30.04,WSW,248,1.1,1.1,27,0.00,CLR,,0.00,WeatherDisplay:10.37,2013-04-28 14:02:00,
2013-04-28 10:03:00,67.8,32.6,30.04,WSW,248,3.8,3.8,27,0.00,CLR,,0.00,WeatherDisplay:10.37,2013-04-28 14:03:00,
2013-04-28 10:04:00,67.6,31.5,30.04,WSW,248,4.6,4.6,26,0.00,CLR,,0.00,WeatherDisplay:10.37,2013-04-28 14:04:00,
2013-04-28 10:05:00,67.6,31.5,30.04,WNW,292,4.6,4.6,26,0.00,CLR,,0.00,WeatherDisplay:10.37,2013-04-28 14:05:00,
2013-04-28 10:07:00,67.8,32.6,30.04,SW,225,1.6,1.6,27,0.00,CLR,,0.00,WeatherDisplay:10.37,2013-04-28 14:07:00,
2013-04-28 10:08:00,68.0,32.7,30.04,SSW,202,1.1,1.4,27,0.00,CLR,,0.00,WeatherDisplay:10.37,2013-04-28 14:08:00,
2013-04-28 10:09:00,68.0,31.8,30.04,WNW,292,3.5,3.5,26,0.00,CLR,,0.00,WeatherDisplay:10.37,2013-04-28 14:09:00,
2013-04-28 10:10:00,68.0,31.8,30.04,SW,225,3.5,0.0,26,0.00,CLR,,0.00,WeatherDisplay:10.37,2013-04-28 14:10:00,
2013-04-28 10:12:00,68.0,31.8,30.04,WNW,292,0.0,1.1,26,0.00,CLR,,0.00,WeatherDisplay:10.37,2013-04-28 14:12:00,
2013-04-28 10:13:00,68.0,31.8,30.04,WNW,292,0.0,1.1,26,0.00,CLR,,0.00,WeatherDisplay:10.37,2013-04-28 14:13:00,
2013-04-28 10:15:00,68.5,33.2,30.04,WNW,292,0.0,1.1,27,0.00,CLR,,0.00,WeatherDisplay:10.37,2013-04-28 14:15:00,
2013-04-28 10:18:00,68.7,32.4,30.04,West,270,4.3,4.3,26,0.00,CLR,,0.00,WeatherDisplay:10.37,2013-04-28 14:18:00,
2013-04-28 10:19:00,68.7,32.4,30.04,SW,225,4.6,4.6,26,0.00,CLR,,0.00,WeatherDisplay:10.37,2013-04-28 14:19:00,
2013-04-28 10:20:00,68.7,32.4,30.04,WNW,292,4.6,0.0,26,0.00,CLR,,0.00,WeatherDisplay:10.37,2013-04-28 14:20:00,
2013-04-28 10:21:00,68.9,32.6,30.04,WNW,292,3.5,3.5,26,0.00,CLR,,0.00,WeatherDisplay:10.37,2013-04-28 14:21:00,
2013-04-28 10:23:00,69.1,32.7,30.04,WNW,292,3.6,3.6,26,0.00,CLR,,0.00,WeatherDisplay:10.37,2013-04-28 14:23:00,
2013-04-28 10:24:00,69.1,31.8,30.04,SSW,202,5.8,5.8,25,0.00,CLR,,0.00,WeatherDisplay:10.37,2013-04-28 14:24:00,
2013-04-28 10:25:00,69.4,33.0,30.04,WSW,248,5.8,0.0,26,0.00,CLR,,0.00,WeatherDisplay:10.37,2013-04-28 14:25:00,
2013-04-28 10:27:00,69.6,33.2,30.04,WSW,248,2.3,0.0,26,0.00,CLR,,0.00,WeatherDisplay:10.37,2013-04-28 14:27:00,
2013-04-28 10:28:00,69.6,33.2,30.04,West,270,2.6,0.0,26,0.00,CLR,,0.00,WeatherDisplay:10.37,2013-04-28 14:28:00,
2013-04-28 10:29:00,69.6,33.2,30.04,WSW,248,2.9,2.9,26,0.00,CLR,,0.00,WeatherDisplay:10.37,2013-04-28 14:29:00,
2013-04-28 10:31:00,69.6,32.2,30.04,NW,315,4.6,4.6,25,0.00,CLR,,0.00,WeatherDisplay:10.37,2013-04-28 14:31:00,
2013-04-28 10:32:00,69.6,32.2,30.04,SE,135,4.6,4.6,25,0.00,CLR,,0.00,WeatherDisplay:10.37,2013-04-28 14:32:00,
2013-04-28 10:33:00,69.8,32.4,30.04,West,270,3.5,3.5,25,0.00,CLR,,0.00,WeatherDisplay:10.37,2013-04-28 14:33:00,
2013-04-28 10:34:00,69.8,32.4,30.04,West,270,4.6,4.6,25,0.00,CLR,,0.00,WeatherDisplay:10.37,2013-04-28 14:34:00,
2013-04-28 10:36:00,70.2,31.7,30.04,WNW,292,5.8,5.8,24,0.00,CLR,,0.00,WeatherDisplay:10.37,2013-04-28 14:36:00,
2013-04-28 10:37:00,70.3,32.8,30.04,West,270,3.5,3.5,25,0.00,CLR,,0.00,WeatherDisplay:10.37,2013-04-28 14:37:00,
2013-04-28 10:38:00,70.3,31.8,30.04,WSW,248,3.6,3.6,24,0.00,CLR,,0.00,WeatherDisplay:10.37,2013-04-28 14:38:00,
2013-04-28 10:39:00,70.5,30.9,30.04,WSW,248,3.6,3.6,23,0.00,CLR,,0.00,WeatherDisplay:10.37,2013-04-28 14:39:00,
2013-04-28 10:41:00,70.5,30.9,30.04,SSE,158,4.6,4.6,23,0.00,CLR,,0.00,WeatherDisplay:10.37,2013-04-28 14:41:00,
2013-04-28 10:42:00,70.5,30.9,30.04,SSW,202,2.3,2.3,23,0.00,CLR,,0.00,WeatherDisplay:10.37,2013-04-28 14:42:00,
2013-04-28 10:44:00,71.1,31.4,30.04,WNW,292,4.6,4.6,23,0.00,CLR,,0.00,WeatherDisplay:10.37,2013-04-28 14:44:00,
2013-04-28 10:45:00,71.1,31.4,30.04,SW,225,4.6,4.6,23,0.00,CLR,,0.00,WeatherDisplay:10.37,2013-04-28 14:45:00,
2013-04-28 10:47:00,71.1,31.4,30.04,West,270,6.9,6.9,23,0.00,CLR,,0.00,WeatherDisplay:10.37,2013-04-28 14:47:00,
2013-04-28 10:49:00,71.2,31.5,30.04,SSW,202,3.5,3.5,23,0.00,CLR,,0.00,WeatherDisplay:10.37,2013-04-28 14:49:00,
2013-04-28 10:50:00,71.2,31.5,30.04,South,180,3.5,3.5,23,0.00,CLR,,0.00,WeatherDisplay:10.37,2013-04-28 14:50:00,
2013-04-28 10:52:00,71.4,31.7,30.04,SW,225,0.0,0.0,23,0.00,CLR,,0.00,WeatherDisplay:10.37,2013-04-28 14:52:00,
2013-04-28 10:53:00,71.6,30.7,30.01,WSW,248,1.1,0.0,22,0.00,CLR,,0.00,WeatherDisplay:10.37,2013-04-28 14:53:00,
2013-04-28 10:54:00,71.6,30.7,30.01,West,270,6.9,6.9,22,0.00,CLR,,0.00,WeatherDisplay:10.37,2013-04-28 14:54:00,
2013-04-28 10:55:00,71.6,30.7,30.01,South,180,9.2,9.2,22,0.00,CLR,,0.00,WeatherDisplay:10.37,2013-04-28 14:55:00,
2013-04-28 10:57:00,71.8,29.7,30.01,WNW,292,4.6,4.6,21,0.00,CLR,,0.00,WeatherDisplay:10.37,2013-04-28 14:57:00,
2013-04-28 10:58:00,71.8,29.7,30.01,WSW,248,8.1,8.1,21,0.00,CLR,,0.00,WeatherDisplay:10.37,2013-04-28 14:58:00,
2013-04-28 10:59:00,71.8,29.7,30.01,WNW,292,8.1,8.1,21,0.00,CLR,,0.00,WeatherDisplay:10.37,2013-04-28 14:59:00,
2013-04-28 11:00:00,72.0,29.9,30.01,WNW,292,8.1,8.1,21,0.00,CLR,,0.00,WeatherDisplay:10.37,2013-04-28 15:00:00,
2013-04-28 11:02:00,72.5,30.3,30.01,SW,225,5.8,5.8,21,0.00,CLR,,0.00,WeatherDisplay:10.37,2013-04-28 15:02:00,
2013-04-28 11:03:00,72.5,30.3,30.01,SW,225,5.8,5.8,21,0.00,CLR,,0.00,WeatherDisplay:10.37,2013-04-28 15:03:00,
2013-04-28 11:04:00,72.9,30.6,30.01,SSW,202,5.8,5.8,21,0.00,CLR,,0.00,WeatherDisplay:10.37,2013-04-28 15:04:00,
2013-04-28 11:05:00,73.0,31.9,30.01,South,180,5.8,5.8,22,0.00,CLR,,0.00,WeatherDisplay:10.37,2013-04-28 15:05:00,
2013-04-28 11:06:00,73.0,30.8,30.01,West,270,5.6,5.6,21,0.00,CLR,,0.00,WeatherDisplay:10.37,2013-04-28 15:06:00,
2013-04-28 11:07:00,73.0,30.8,30.01,SSE,158,5.8,5.8,21,0.00,CLR,,0.00,WeatherDisplay:10.37,2013-04-28 15:07:00,
2013-04-28 11:08:00,73.0,30.8,30.01,WNW,292,3.6,3.6,21,0.00,CLR,,0.00,WeatherDisplay:10.37,2013-04-28 15:08:00,
2013-04-28 11:10:00,72.9,30.6,30.01,South,180,3.5,3.5,21,0.00,CLR,,0.00,WeatherDisplay:10.37,2013-04-28 15:10:00,
2013-04-28 11:11:00,73.2,30.9,30.01,South,180,6.9,6.9,21,0.00,CLR,,0.00,WeatherDisplay:10.37,2013-04-28 15:11:00,
2013-04-28 11:13:00,73.8,31.4,30.01,South,180,0.9,0.0,21,0.00,CLR,,0.00,WeatherDisplay:10.37,2013-04-28 15:13:00,
2013-04-28 11:15:00,74.3,31.8,30.01,WSW,248,4.6,4.6,21,0.00,CLR,,0.00,WeatherDisplay:10.37,2013-04-28 15:15:00,
2013-04-28 11:16:00,74.3,31.8,30.01,SSW,202,2.3,0.0,21,0.00,CLR,,0.00,WeatherDisplay:10.37,2013-04-28 15:16:00,
2013-04-28 11:18:00,74.3,28.0,30.01,WSW,248,2.3,2.3,18,0.00,CLR,,0.00,WeatherDisplay:10.37,2013-04-28 15:18:00,
2013-04-28 11:20:00,74.3,28.0,30.01,WNW,292,5.8,5.8,18,0.00,CLR,,0.00,WeatherDisplay:10.37,2013-04-28 15:20:00,
2013-04-28 11:21:00,74.3,28.0,30.01,West,270,8.1,8.1,18,0.00,CLR,,0.00,WeatherDisplay:10.37,2013-04-28 15:21:00,
2013-04-28 11:23:00,74.8,28.5,30.01,NW,315,2.4,0.0,18,0.00,CLR,,0.00,WeatherDisplay:10.37,2013-04-28 15:23:00,
2013-04-28 11:24:00,74.8,28.5,30.01,WSW,248,3.5,3.5,18,0.00,CLR,,0.00,WeatherDisplay:10.37,2013-04-28 15:24:00,
2013-04-28 11:25:00,74.8,25.6,30.01,West,270,6.9,6.9,16,0.00,CLR,,0.00,WeatherDisplay:10.37,2013-04-28 15:25:00,
2013-04-28 11:26:00,74.7,25.5,30.01,SSW,202,6.9,6.9,16,0.00,CLR,,0.00,WeatherDisplay:10.37,2013-04-28 15:26:00,
2013-04-28 11:29:00,75.2,24.3,30.01,WSW,248,6.9,6.9,15,0.00,CLR,,0.00,WeatherDisplay:10.37,2013-04-28 15:29:00,
2013-04-28 11:30:00,75.0,25.7,30.01,ENE,68,6.9,6.9,16,0.00,CLR,,0.00,WeatherDisplay:10.37,2013-04-28 15:30:00,
2013-04-28 11:31:00,75.2,24.3,30.01,SSW,202,2.3,2.3,15,0.00,CLR,,0.00,WeatherDisplay:10.37,2013-04-28 15:31:00,
2013-04-28 11:34:00,75.4,24.5,30.01,SW,225,5.8,5.8,15,0.00,CLR,,0.00,WeatherDisplay:10.37,2013-04-28 15:34:00,
2013-04-28 11:35:00,75.4,24.5,30.01,WSW,248,3.5,3.5,15,0.00,CLR,,0.00,WeatherDisplay:10.37,2013-04-28 15:35:00,
2013-04-28 11:36:00,75.7,24.8,30.01,West,270,3.5,3.5,15,0.00,CLR,,0.00,WeatherDisplay:10.37,2013-04-28 15:36:00,
2013-04-28 11:37:00,75.9,24.9,30.01,SW,225,3.5,3.5,15,0.00,CLR,,0.00,WeatherDisplay:10.37,2013-04-28 15:37:00,
2013-04-28 11:39:00,76.1,25.1,30.01,West,270,6.4,0.0,15,0.00,CLR,,0.00,WeatherDisplay:10.37,2013-04-28 15:39:00,
2013-04-28 11:40:00,75.9,24.9,30.01,WNW,292,6.9,6.9,15,0.00,CLR,,0.00,WeatherDisplay:10.37,2013-04-28 15:40:00,
2013-04-28 11:41:00,75.7,24.8,30.01,NNW,338,5.4,5.4,15,0.00,CLR,,0.00,WeatherDisplay:10.37,2013-04-28 15:41:00,
2013-04-28 11:42:00,75.7,24.8,30.01,SW,225,5.8,5.8,15,0.00,CLR,,0.00,WeatherDisplay:10.37,2013-04-28 15:42:00,
2013-04-28 11:44:00,76.1,25.1,30.01,NNW,338,3.5,3.5,15,0.00,CLR,,0.00,WeatherDisplay:10.37,2013-04-28 15:44:00,
2013-04-28 11:46:00,76.3,25.2,30.01,SW,225,3.1,0.0,15,0.00,CLR,,0.00,WeatherDisplay:10.37,2013-04-28 15:46:00,
2013-04-28 11:47:00,76.3,25.2,30.01,WSW,248,3.5,3.5,15,0.00,CLR,,0.00,WeatherDisplay:10.37,2013-04-28 15:47:00,
2013-04-28 11:49:00,76.5,25.3,30.01,SW,225,3.5,3.5,15,0.00,CLR,,0.00,WeatherDisplay:10.37,2013-04-28 15:49:00,
2013-04-28 11:51:00,76.8,25.6,30.01,WSW,248,3.5,3.5,15,0.00,CLR,,0.00,WeatherDisplay:10.37,2013-04-28 15:51:00,
2013-04-28 11:52:00,76.8,25.6,30.01,ESE,112,2.3,2.3,15,0.00,CLR,,0.00,WeatherDisplay:10.37,2013-04-28 15:52:00,
2013-04-28 11:55:00,77.4,26.1,29.99,SSW,202,2.3,2.3,15,0.00,CLR,,0.00,WeatherDisplay:10.37,2013-04-28 15:55:00,
2013-04-28 11:56:00,77.4,26.1,29.99,WSW,248,2.3,2.4,15,0.00,CLR,,0.00,WeatherDisplay:10.37,2013-04-28 15:56:00,
2013-04-28 11:57:00,77.0,25.8,29.99,SW,225,3.5,3.5,15,0.00,CLR,,0.00,WeatherDisplay:10.37,2013-04-28 15:57:00,
2013-04-28 12:00:00,77.2,25.9,29.99,WSW,248,2.3,2.3,15,0.00,CLR,,0.00,WeatherDisplay:10.37,2013-04-28 16:00:00,
2013-04-28 12:01:00,77.4,26.1,29.99,SSE,158,0.0,0.0,15,0.00,CLR,,0.00,WeatherDisplay:10.37,2013-04-28 16:01:00,
2013-04-28 12:02:00,77.4,26.1,29.99,SSE,158,0.0,0.0,15,0.00,CLR,,0.00,WeatherDisplay:10.37,2013-04-28 16:02:00,
2013-04-28 12:03:00,77.9,26.5,29.99,SW,225,0.0,0.0,15,0.00,CLR,,0.00,WeatherDisplay:10.37,2013-04-28 16:03:00,
2013-04-28 12:05:00,77.9,26.5,29.99,South,180,3.5,3.5,15,0.00,CLR,,0.00,WeatherDisplay:10.37,2013-04-28 16:05:00,
2013-04-28 12:07:00,78.1,26.6,29.99,NW,315,3.5,3.5,15,0.00,CLR,,0.00,WeatherDisplay:10.37,2013-04-28 16:07:00,
2013-04-28 12:08:00,78.1,26.6,30.01,WSW,248,2.3,0.0,15,0.00,CLR,,0.00,WeatherDisplay:10.37,2013-04-28 16:08:00,
2013-04-28 12:10:00,78.1,26.6,30.01,SSW,202,4.6,4.6,15,0.00,CLR,,0.00,WeatherDisplay:10.37,2013-04-28 16:10:00,
2013-04-28 12:12:00,78.6,27.1,30.01,SSE,158,2.3,2.3,15,0.00,CLR,,0.00,WeatherDisplay:10.37,2013-04-28 16:12:00,
2013-04-28 12:13:00,78.4,26.9,30.01,SSW,202,2.3,0.0,15,0.00,CLR,,0.00,WeatherDisplay:10.37,2013-04-28 16:13:00,
2013-04-28 12:15:00,78.8,21.9,30.01,WNW,292,3.5,3.5,12,0.00,CLR,,0.00,WeatherDisplay:10.37,2013-04-28 16:15:00,
2013-04-28 12:17:00,78.6,23.6,30.01,WSW,248,0.0,2.6,13,0.00,CLR,,0.00,WeatherDisplay:10.37,2013-04-28 16:17:00,
2013-04-28 12:18:00,79.2,22.1,30.01,SW,225,4.6,4.6,12,0.00,CLR,,0.00,WeatherDisplay:10.37,2013-04-28 16:18:00,
2013-04-28 12:20:00,78.8,21.9,30.01,SW,225,5.8,5.8,12,0.00,CLR,,0.00,WeatherDisplay:10.37,2013-04-28 16:20:00,
2013-04-28 12:22:00,78.8,21.9,30.01,SW,225,6.0,6.0,12,0.00,CLR,,0.00,WeatherDisplay:10.37,2013-04-28 16:22:00,
2013-04-28 12:23:00,78.6,23.6,29.99,WSW,248,6.0,6.0,13,0.00,CLR,,0.00,WeatherDisplay:10.37,2013-04-28 16:23:00,
2013-04-28 12:26:00,79.0,22.0,29.99,WSW,248,4.6,4.6,12,0.00,CLR,,0.00,WeatherDisplay:10.37,2013-04-28 16:26:00,
2013-04-28 12:28:00,79.5,22.4,29.99,West,270,3.5,3.5,12,0.00,CLR,,0.00,WeatherDisplay:10.37,2013-04-28 16:28:00,
2013-04-28 12:31:00,80.1,22.8,29.99,SW,225,2.3,2.3,12,0.00,CLR,,0.00,WeatherDisplay:10.37,2013-04-28 16:31:00,
2013-04-28 12:33:00,79.9,22.7,29.99,SSW,202,3.8,3.8,12,0.00,CLR,,0.00,WeatherDisplay:10.37,2013-04-28 16:33:00,
2013-04-28 12:34:00,79.5,22.4,29.99,SSW,202,3.5,3.5,12,0.00,CLR,,0.00,WeatherDisplay:10.37,2013-04-28 16:34:00,
2013-04-28 12:36:00,79.2,22.1,29.99,SSW,202,3.5,3.5,12,0.00,CLR,,0.00,WeatherDisplay:10.37,2013-04-28 16:36:00,
2013-04-28 12:38:00,79.5,22.4,29.95,SSE,158,2.3,2.3,12,0.00,CLR,,0.00,WeatherDisplay:10.37,2013-04-28 16:38:00,
2013-04-28 12:39:00,79.5,22.4,29.95,SSE,158,1.1,0.0,12,0.00,CLR,,0.00,WeatherDisplay:10.37,2013-04-28 16:39:00,
2013-04-28 12:41:00,79.7,22.6,29.95,West,270,4.9,4.9,12,0.00,CLR,,0.00,WeatherDisplay:10.37,2013-04-28 16:41:00,
2013-04-28 12:43:00,80.1,22.8,29.95,SW,225,3.5,3.5,12,0.00,CLR,,0.00,WeatherDisplay:10.37,2013-04-28 16:43:00,
2013-04-28 12:44:00,80.1,22.8,29.95,WNW,292,5.8,5.8,12,0.00,CLR,,0.00,WeatherDisplay:10.37,2013-04-28 16:44:00,
2013-04-28 12:46:00,79.2,22.1,29.95,SW,225,5.8,5.8,12,0.00,CLR,,0.00,WeatherDisplay:10.37,2013-04-28 16:46:00,
2013-04-28 12:48:00,79.5,22.4,29.95,SW,225,2.3,2.3,12,0.00,CLR,,0.00,WeatherDisplay:10.37,2013-04-28 16:48:00,
2013-04-28 12:49:00,79.3,22.3,29.95,West,270,5.8,5.8,12,0.00,CLR,,0.00,WeatherDisplay:10.37,2013-04-28 16:49:00,
2013-04-28 12:52:00,79.2,22.1,29.95,WSW,248,3.5,3.5,12,0.00,CLR,,0.00,WeatherDisplay:10.37,2013-04-28 16:52:00,
2013-04-28 12:53:00,79.2,22.1,29.95,SSW,202,3.5,3.5,12,0.00,CLR,,0.00,WeatherDisplay:10.37,2013-04-28 16:53:00,
2013-04-28 12:54:00,78.3,23.3,29.95,SW,225,4.6,4.6,13,0.00,CLR,,0.00,WeatherDisplay:10.37,2013-04-28 16:54:00,
2013-04-28 12:57:00,78.1,23.2,29.95,SSW,202,3.8,3.8,13,0.00,CLR,,0.00,WeatherDisplay:10.37,2013-04-28 16:57:00,
2013-04-28 12:58:00,78.1,23.2,29.95,SSE,158,3.5,3.5,13,0.00,CLR,,0.00,WeatherDisplay:10.37,2013-04-28 16:58:00,
2013-04-28 12:59:00,78.1,23.2,29.95,SW,225,3.3,3.3,13,0.00,CLR,,0.00,WeatherDisplay:10.37,2013-04-28 16:59:00,
2013-04-28 13:02:00,78.3,23.3,29.95,SW,225,5.8,5.8,13,0.00,CLR,,0.00,WeatherDisplay:10.37,2013-04-28 17:02:00,
2013-04-28 13:03:00,78.6,23.6,29.95,SSW,202,6.9,6.9,13,0.00,CLR,,0.00,WeatherDisplay:10.37,2013-04-28 17:03:00,
2013-04-28 13:04:00,78.6,23.6,29.95,SSW,202,6.9,6.9,13,0.00,CLR,,0.00,WeatherDisplay:10.37,2013-04-28 17:04:00,
2013-04-28 13:05:00,78.6,23.6,29.95,WSW,248,6.9,6.9,13,0.00,CLR,,0.00,WeatherDisplay:10.37,2013-04-28 17:05:00,
2013-04-28 13:07:00,78.3,23.3,29.95,SW,225,5.8,5.8,13,0.00,CLR,,0.00,WeatherDisplay:10.37,2013-04-28 17:07:00,
2013-04-28 13:09:00,78.3,23.3,29.95,West,270,5.8,5.8,13,0.00,CLR,,0.00,WeatherDisplay:10.37,2013-04-28 17:09:00,
2013-04-28 13:10:00,78.3,23.3,29.95,South,180,6.2,6.2,13,0.00,CLR,,0.00,WeatherDisplay:10.37,2013-04-28 17:10:00,
2013-04-28 13:13:00,77.7,22.9,29.95,WSW,248,5.8,5.8,13,0.00,CLR,,0.00,WeatherDisplay:10.37,2013-04-28 17:13:00,
2013-04-28 13:14:00,77.5,22.8,29.95,SW,225,5.8,5.8,13,0.00,CLR,,0.00,WeatherDisplay:10.37,2013-04-28 17:14:00,
2013-04-28 13:15:00,77.5,22.8,29.95,SSW,202,5.8,5.8,13,0.00,CLR,,0.00,WeatherDisplay:10.37,2013-04-28 17:15:00,
2013-04-28 13:16:00,77.7,22.9,29.95,WSW,248,3.5,3.5,13,0.00,CLR,,0.00,WeatherDisplay:10.37,2013-04-28 17:16:00,
2013-04-28 13:18:00,79.0,22.0,29.95,WNW,292,3.5,3.5,12,0.00,CLR,,0.00,WeatherDisplay:10.37,2013-04-28 17:18:00,
2013-04-28 13:19:00,79.2,22.1,29.95,SW,225,3.5,3.5,12,0.00,CLR,,0.00,WeatherDisplay:10.37,2013-04-28 17:19:00,
2013-04-28 13:20:00,79.0,22.0,29.95,NNW,338,3.5,3.5,12,0.00,CLR,,0.00,WeatherDisplay:10.37,2013-04-28 17:20:00,
2013-04-28 13:21:00,79.2,22.1,29.95,SW,225,3.5,3.5,12,0.00,CLR,,0.00,WeatherDisplay:10.37,2013-04-28 17:21:00,
2013-04-28 13:23:00,79.3,22.3,29.93,WSW,248,5.4,5.4,12,0.00,CLR,,0.00,WeatherDisplay:10.37,2013-04-28 17:23:00,
2013-04-28 13:24:00,79.2,22.1,29.93,SW,225,5.8,5.8,12,0.00,CLR,,0.00,WeatherDisplay:10.37,2013-04-28 17:24:00,
2013-04-28 13:25:00,79.3,22.3,29.93,WSW,248,4.6,4.6,12,0.00,CLR,,0.00,WeatherDisplay:10.37,2013-04-28 17:25:00,
2013-04-28 13:26:00,79.2,22.1,29.93,WSW,248,5.9,6.0,12,0.00,CLR,,0.00,WeatherDisplay:10.37,2013-04-28 17:26:00,
2013-04-28 13:28:00,79.5,22.4,29.93,WNW,292,10.0,10.0,12,0.00,CLR,,0.00,WeatherDisplay:10.37,2013-04-28 17:28:00,
2013-04-28 13:29:00,79.3,22.3,29.93,SW,225,10.4,10.4,12,0.00,CLR,,0.00,WeatherDisplay:10.37,2013-04-28 17:29:00,
2013-04-28 13:30:00,79.3,22.3,29.93,NW,315,8.1,8.1,12,0.00,CLR,,0.00,WeatherDisplay:10.37,2013-04-28 17:30:00,
2013-04-28 13:31:00,79.2,22.1,29.93,West,270,9.8,9.8,12,0.00,CLR,,0.00,WeatherDisplay:10.37,2013-04-28 17:31:00,
2013-04-28 13:33:00,79.2,22.1,29.93,WNW,292,11.5,11.5,12,0.00,CLR,,0.00,WeatherDisplay:10.37,2013-04-28 17:33:00,
2013-04-28 13:34:00,79.2,22.1,29.93,West,270,11.5,11.5,12,0.00,CLR,,0.00,WeatherDisplay:10.37,2013-04-28 17:34:00,
2013-04-28 13:36:00,79.2,22.1,29.93,WSW,248,6.9,6.9,12,0.00,CLR,,0.00,WeatherDisplay:10.37,2013-04-28 17:36:00,
2013-04-28 13:39:00,80.2,28.4,29.93,WNW,292,3.5,3.5,15,0.00,CLR,,0.00,WeatherDisplay:10.37,2013-04-28 17:39:00,
2013-04-28 13:41:00,80.4,28.5,29.93,WNW,292,5.8,5.8,15,0.00,CLR,,0.00,WeatherDisplay:10.37,2013-04-28 17:41:00,
2013-04-28 13:44:00,79.5,22.4,29.93,WSW,248,12.7,12.7,12,0.00,CLR,,0.00,WeatherDisplay:10.37,2013-04-28 17:44:00,
2013-04-28 13:45:00,79.2,22.1,29.93,West,270,10.0,10.0,12,0.00,CLR,,0.00,WeatherDisplay:10.37,2013-04-28 17:45:00,
2013-04-28 13:46:00,79.0,22.0,29.93,SW,225,4.6,4.6,12,0.00,CLR,,0.00,WeatherDisplay:10.37,2013-04-28 17:46:00,
2013-04-28 13:47:00,79.0,22.0,29.93,WSW,248,4.9,4.9,12,0.00,CLR,,0.00,WeatherDisplay:10.37,2013-04-28 17:47:00,
2013-04-28 13:49:00,78.6,23.6,29.93,SSW,202,8.1,8.1,13,0.00,CLR,,0.00,WeatherDisplay:10.37,2013-04-28 17:49:00,
2013-04-28 13:50:00,78.4,23.5,29.93,WNW,292,4.6,4.6,13,0.00,CLR,,0.00,WeatherDisplay:10.37,2013-04-28 17:50:00,
2013-04-28 13:52:00,78.6,23.6,29.93,SW,225,8.1,8.1,13,0.00,CLR,,0.00,WeatherDisplay:10.37,2013-04-28 17:52:00,
2013-04-28 13:54:00,78.3,23.3,29.93,NNW,338,6.4,6.4,13,0.00,CLR,,0.00,WeatherDisplay:10.37,2013-04-28 17:54:00,
2013-04-28 13:55:00,78.4,23.5,29.93,WNW,292,6.9,6.9,13,0.00,CLR,,0.00,WeatherDisplay:10.37,2013-04-28 17:55:00,
2013-04-28 13:57:00,78.4,23.5,29.93,West,270,4.6,0.0,13,0.00,CLR,,0.00,WeatherDisplay:10.37,2013-04-28 17:57:00,
2013-04-28 13:59:00,78.3,23.3,29.93,WNW,292,12.8,12.8,13,0.00,CLR,,0.00,WeatherDisplay:10.37,2013-04-28 17:59:00,
2013-04-28 14:00:00,78.3,23.3,29.93,WSW,248,12.7,12.7,13,0.00,CLR,,0.00,WeatherDisplay:10.37,2013-04-28 18:00:00,
2013-04-28 14:02:00,77.7,22.9,29.93,West,270,8.1,8.1,13,0.00,CLR,,0.00,WeatherDisplay:10.37,2013-04-28 18:02:00,
2013-04-28 14:03:00,77.7,22.9,29.93,West,270,4.6,4.6,13,0.00,CLR,,0.00,WeatherDisplay:10.37,2013-04-28 18:03:00,
2013-04-28 14:05:00,77.7,22.9,29.93,WNW,292,4.6,4.6,13,0.00,CLR,,0.00,WeatherDisplay:10.37,2013-04-28 18:05:00,
2013-04-28 14:07:00,77.4,22.6,29.93,WSW,248,13.7,13.7,13,0.00,CLR,,0.00,WeatherDisplay:10.37,2013-04-28 18:07:00,
2013-04-28 14:08:00,77.4,22.6,29.93,WSW,248,13.8,13.8,13,0.00,CLR,,0.00,WeatherDisplay:10.37,2013-04-28 18:08:00,
2013-04-28 14:10:00,76.8,22.2,29.93,NW,315,5.8,5.8,13,0.00,CLR,,0.00,WeatherDisplay:10.37,2013-04-28 18:10:00,
2013-04-28 14:12:00,77.4,22.6,29.93,West,270,5.8,5.8,13,0.00,CLR,,0.00,WeatherDisplay:10.37,2013-04-28 18:12:00,
2013-04-28 14:13:00,77.5,22.8,29.93,NW,315,7.4,7.4,13,0.00,CLR,,0.00,WeatherDisplay:10.37,2013-04-28 18:13:00,
2013-04-28 14:16:00,77.9,23.1,29.93,WNW,292,5.6,5.6,13,0.00,CLR,,0.00,WeatherDisplay:10.37,2013-04-28 18:16:00,
2013-04-28 14:17:00,77.9,23.1,29.93,West,270,6.9,6.9,13,0.00,CLR,,0.00,WeatherDisplay:10.37,2013-04-28 18:17:00,
2013-04-28 14:18:00,77.9,23.1,29.93,West,270,8.1,8.1,13,0.00,CLR,,0.00,WeatherDisplay:10.37,2013-04-28 18:18:00,
2013-04-28 14:21:00,77.7,22.9,29.93,WSW,248,8.1,8.1,13,0.00,CLR,,0.00,WeatherDisplay:10.37,2013-04-28 18:21:00,
2013-04-28 14:22:00,77.7,26.4,29.93,NW,315,8.1,8.1,15,0.00,CLR,,0.00,WeatherDisplay:10.37,2013-04-28 18:22:00,
2013-04-28 14:24:00,77.5,22.8,29.93,WSW,248,15.0,15.0,13,0.00,CLR,,0.00,WeatherDisplay:10.37,2013-04-28 18:24:00,
2013-04-28 14:26:00,77.4,22.6,29.93,WSW,248,5.8,5.8,13,0.00,CLR,,0.00,WeatherDisplay:10.37,2013-04-28 18:26:00,
2013-04-28 14:28:00,77.0,22.4,29.93,WSW,248,9.2,9.2,13,0.00,CLR,,0.00,WeatherDisplay:10.37,2013-04-28 18:28:00,
2013-04-28 14:29:00,77.0,22.4,29.93,WNW,292,8.1,8.1,13,0.00,CLR,,0.00,WeatherDisplay:10.37,2013-04-28 18:29:00,
2013-04-28 14:32:00,78.1,26.6,29.93,SW,225,4.6,4.6,15,0.00,CLR,,0.00,WeatherDisplay:10.37,2013-04-28 18:32:00,
2013-04-28 14:33:00,77.9,26.5,29.93,West,270,6.4,6.4,15,0.00,CLR,,0.00,WeatherDisplay:10.37,2013-04-28 18:33:00,
2013-04-28 14:34:00,77.7,22.9,29.93,West,270,6.9,6.9,13,0.00,CLR,,0.00,WeatherDisplay:10.37,2013-04-28 18:34:00,
2013-04-28 14:37:00,77.9,26.5,29.93,SW,225,6.9,6.9,15,0.00,CLR,,0.00,WeatherDisplay:10.37,2013-04-28 18:37:00,
2013-04-28 14:38:00,77.7,26.4,29.93,NW,315,10.0,10.0,15,0.00,CLR,,0.00,WeatherDisplay:10.37,2013-04-28 18:38:00,
2013-04-28 14:39:00,77.7,26.4,29.93,NNW,338,10.4,10.4,15,0.00,CLR,,0.00,WeatherDisplay:10.37,2013-04-28 18:39:00,
2013-04-28 14:40:00,77.5,26.2,29.93,WSW,248,13.8,13.8,15,0.00,CLR,,0.00,WeatherDisplay:10.37,2013-04-28 18:40:00,
2013-04-28 14:42:00,77.9,26.5,29.93,WNW,292,7.1,7.1,15,0.00,CLR,,0.00,WeatherDisplay:10.37,2013-04-28 18:42:00,
2013-04-28 14:43:00,77.9,26.5,29.93,WNW,292,6.9,6.9,15,0.00,CLR,,0.00,WeatherDisplay:10.37,2013-04-28 18:43:00,
2013-04-28 14:44:00,78.3,26.8,29.93,WSW,248,2.3,2.3,15,0.00,CLR,,0.00,WeatherDisplay:10.37,2013-04-28 18:44:00,
2013-04-28 14:46:00,78.1,26.6,29.93,WSW,248,4.6,4.6,15,0.00,CLR,,0.00,WeatherDisplay:10.37,2013-04-28 18:46:00,
2013-04-28 14:47:00,77.9,26.5,29.93,SW,225,3.5,3.5,15,0.00,CLR,,0.00,WeatherDisplay:10.37,2013-04-28 18:47:00,
2013-04-28 14:48:00,78.1,26.6,29.93,West,270,4.9,4.9,15,0.00,CLR,,0.00,WeatherDisplay:10.37,2013-04-28 18:48:00,
2013-04-28 14:49:00,77.5,26.2,29.93,West,270,4.6,4.6,15,0.00,CLR,,0.00,WeatherDisplay:10.37,2013-04-28 18:49:00,
2013-04-28 14:51:00,77.0,25.8,29.93,SW,225,5.8,5.8,15,0.00,CLR,,0.00,WeatherDisplay:10.37,2013-04-28 18:51:00,
2013-04-28 14:52:00,76.5,25.3,29.93,NNW,338,5.8,5.8,15,0.00,CLR,,0.00,WeatherDisplay:10.37,2013-04-28 18:52:00,
2013-04-28 14:53:00,76.5,25.3,29.93,SW,225,5.8,5.8,15,0.00,CLR,,0.00,WeatherDisplay:10.37,2013-04-28 18:53:00,
2013-04-28 14:54:00,76.3,21.8,29.93,SW,225,5.8,5.8,13,0.00,CLR,,0.00,WeatherDisplay:10.37,2013-04-28 18:54:00,
2013-04-28 14:56:00,76.5,25.3,29.93,WSW,248,3.5,3.5,15,0.00,CLR,,0.00,WeatherDisplay:10.37,2013-04-28 18:56:00,
2013-04-28 14:58:00,76.3,25.2,29.93,SSW,202,4.6,4.6,15,0.00,CLR,,0.00,WeatherDisplay:10.37,2013-04-28 18:58:00,
2013-04-28 15:00:00,76.3,25.2,29.93,WSW,248,2.3,0.0,15,0.00,CLR,,0.00,WeatherDisplay:10.37,2013-04-28 19:00:00,
2013-04-28 15:01:00,76.8,25.6,29.93,WNW,292,0.0,0.0,15,0.00,CLR,,0.00,WeatherDisplay:10.37,2013-04-28 19:01:00,
2013-04-28 15:03:00,76.5,25.3,29.93,WSW,248,4.6,4.6,15,0.00,CLR,,0.00,WeatherDisplay:10.37,2013-04-28 19:03:00,
2013-04-28 15:04:00,76.8,25.6,29.93,WSW,248,1.1,1.1,15,0.00,CLR,,0.00,WeatherDisplay:10.37,2013-04-28 19:04:00,
2013-04-28 15:05:00,76.6,25.5,29.93,SW,225,5.8,5.8,15,0.00,CLR,,0.00,WeatherDisplay:10.37,2013-04-28 19:05:00,
2013-04-28 15:06:00,76.6,25.5,29.93,SSW,202,5.8,5.8,15,0.00,CLR,,0.00,WeatherDisplay:10.37,2013-04-28 19:06:00,
2013-04-28 15:08:00,76.3,25.2,29.93,SW,225,5.8,5.8,15,0.00,CLR,,0.00,WeatherDisplay:10.37,2013-04-28 19:08:00,
2013-04-28 15:09:00,76.1,25.1,29.93,SW,225,3.5,3.5,15,0.00,CLR,,0.00,WeatherDisplay:10.37,2013-04-28 19:09:00,
2013-04-28 15:10:00,76.1,25.1,29.93,SW,225,3.5,3.5,15,0.00,CLR,,0.00,WeatherDisplay:10.37,2013-04-28 19:10:00,
2013-04-28 15:11:00,76.1,25.1,29.93,NNW,338,2.3,2.3,15,0.00,CLR,,0.00,WeatherDisplay:10.37,2013-04-28 19:11:00,
2013-04-28 15:13:00,76.1,25.1,29.93,WSW,248,6.0,6.0,15,0.00,CLR,,0.00,WeatherDisplay:10.37,2013-04-28 19:13:00,
2013-04-28 15:14:00,76.1,25.1,29.93,WSW,248,8.1,8.1,15,0.00,CLR,,0.00,WeatherDisplay:10.37,2013-04-28 19:14:00,
2013-04-28 15:16:00,76.5,25.3,29.93,SW,225,4.6,4.6,15,0.00,CLR,,0.00,WeatherDisplay:10.37,2013-04-28 19:16:00,
2013-04-28 15:19:00,77.0,25.8,29.93,WSW,248,0.0,0.0,15,0.00,CLR,,0.00,WeatherDisplay:10.37,2013-04-28 19:19:00,
2013-04-28 15:21:00,76.8,25.6,29.93,NW,315,5.8,5.8,15,0.00,CLR,,0.00,WeatherDisplay:10.37,2013-04-28 19:21:00,
2013-04-28 15:24:00,76.3,21.8,29.93,WSW,248,5.8,5.8,13,0.00,CLR,,0.00,WeatherDisplay:10.37,2013-04-28 19:24:00,
2013-04-28 15:25:00,76.3,25.2,29.93,SSW,202,3.5,0.0,15,0.00,CLR,,0.00,WeatherDisplay:10.37,2013-04-28 19:25:00,
2013-04-28 15:26:00,76.1,25.1,29.93,SSW,202,6.2,6.2,15,0.00,CLR,,0.00,WeatherDisplay:10.37,2013-04-28 19:26:00,
2013-04-28 15:27:00,76.1,25.1,29.93,WSW,248,5.8,5.8,15,0.00,CLR,,0.00,WeatherDisplay:10.37,2013-04-28 19:27:00,
2013-04-28 15:29:00,76.1,25.1,29.93,West,270,6.0,6.0,15,0.00,CLR,,0.00,WeatherDisplay:10.37,2013-04-28 19:29:00,
2013-04-28 15:30:00,76.1,25.1,29.93,West,270,5.8,5.8,15,0.00,CLR,,0.00,WeatherDisplay:10.37,2013-04-28 19:30:00,
2013-04-28 15:32:00,75.6,21.2,29.93,SW,225,5.8,5.8,13,0.00,CLR,,0.00,WeatherDisplay:10.37,2013-04-28 19:32:00,
2013-04-28 15:35:00,75.4,21.1,29.93,WSW,248,3.8,3.8,13,0.00,CLR,,0.00,WeatherDisplay:10.37,2013-04-28 19:35:00,
2013-04-28 15:37:00,75.2,20.9,29.93,SW,225,3.6,3.6,13,0.00,CLR,,0.00,WeatherDisplay:10.37,2013-04-28 19:37:00,
2013-04-28 15:40:00,75.4,21.1,29.90,SSW,202,4.6,4.6,13,0.00,CLR,,0.00,WeatherDisplay:10.37,2013-04-28 19:40:00,
2013-04-28 15:42:00,75.2,20.9,29.90,WSW,248,5.8,5.8,13,0.00,CLR,,0.00,WeatherDisplay:10.37,2013-04-28 19:42:00,
2013-04-28 15:43:00,75.2,20.9,29.90,WNW,292,7.4,7.4,13,0.00,CLR,,0.00,WeatherDisplay:10.37,2013-04-28 19:43:00,
2013-04-28 15:45:00,75.4,24.5,29.90,NW,315,16.6,16.6,15,0.00,CLR,,0.00,WeatherDisplay:10.37,2013-04-28 19:45:00,
2013-04-28 15:46:00,74.8,20.7,29.90,WNW,292,16.1,16.1,13,0.00,CLR,,0.00,WeatherDisplay:10.37,2013-04-28 19:46:00,
2013-04-28 15:47:00,74.7,20.5,29.90,West,270,5.8,5.8,13,0.00,CLR,,0.00,WeatherDisplay:10.37,2013-04-28 19:47:00,
2013-04-28 15:48:00,74.7,20.5,29.90,WNW,292,5.8,5.8,13,0.00,CLR,,0.00,WeatherDisplay:10.37,2013-04-28 19:48:00,
2013-04-28 15:50:00,74.7,20.5,29.90,West,270,4.6,4.6,13,0.00,CLR,,0.00,WeatherDisplay:10.37,2013-04-28 19:50:00,
2013-04-28 15:51:00,74.7,20.5,29.90,NNW,338,5.4,5.4,13,0.00,CLR,,0.00,WeatherDisplay:10.37,2013-04-28 19:51:00,
2013-04-28 15:53:00,74.7,20.5,29.90,SSW,202,2.3,2.6,13,0.00,CLR,,0.00,WeatherDisplay:10.37,2013-04-28 19:53:00,
2013-04-28 15:55:00,74.5,20.4,29.90,West,270,10.4,10.4,13,0.00,CLR,,0.00,WeatherDisplay:10.37,2013-04-28 19:55:00,
2013-04-28 15:56:00,74.5,20.4,29.90,NW,315,13.8,13.8,13,0.00,CLR,,0.00,WeatherDisplay:10.37,2013-04-28 19:56:00,
2013-04-28 15:58:00,74.7,20.5,29.90,West,270,5.8,5.8,13,0.00,CLR,,0.00,WeatherDisplay:10.37,2013-04-28 19:58:00,
2013-04-28 16:00:00,74.5,20.4,29.90,West,270,11.5,11.5,13,0.00,CLR,,0.00,WeatherDisplay:10.37,2013-04-28 20:00:00,
2013-04-28 16:01:00,74.5,20.4,29.90,WSW,248,11.5,11.5,13,0.00,CLR,,0.00,WeatherDisplay:10.37,2013-04-28 20:01:00,
2013-04-28 16:03:00,74.3,20.2,29.90,West,270,3.5,3.5,13,0.00,CLR,,0.00,WeatherDisplay:10.37,2013-04-28 20:03:00,
2013-04-28 16:05:00,74.1,20.1,29.90,West,270,9.2,9.2,13,0.00,CLR,,0.00,WeatherDisplay:10.37,2013-04-28 20:05:00,
2013-04-28 16:06:00,74.1,20.1,29.90,WNW,292,7.4,7.4,13,0.00,CLR,,0.00,WeatherDisplay:10.37,2013-04-28 20:06:00,
2013-04-28 16:08:00,73.9,19.9,29.90,SW,225,11.5,11.5,13,0.00,CLR,,0.00,WeatherDisplay:10.37,2013-04-28 20:08:00,
2013-04-28 16:10:00,74.1,20.1,29.90,SW,225,4.6,4.6,13,0.00,CLR,,0.00,WeatherDisplay:10.37,2013-04-28 20:10:00,
2013-04-28 16:11:00,74.1,20.1,29.90,West,270,2.4,2.4,13,0.00,CLR,,0.00,WeatherDisplay:10.37,2013-04-28 20:11:00,
2013-04-28 16:13:00,73.9,19.9,29.90,NW,315,5.9,5.9,13,0.00,CLR,,0.00,WeatherDisplay:10.37,2013-04-28 20:13:00,
2013-04-28 16:15:00,73.4,19.5,29.90,WSW,248,8.1,8.1,13,0.00,CLR,,0.00,WeatherDisplay:10.37,2013-04-28 20:15:00,
2013-04-28 16:16:00,73.2,21.1,29.90,NW,315,8.1,8.1,14,0.00,CLR,,0.00,WeatherDisplay:10.37,2013-04-28 20:16:00,
2013-04-28 16:18:00,73.0,21.0,29.90,SW,225,5.8,5.8,14,0.00,CLR,,0.00,WeatherDisplay:10.37,2013-04-28 20:18:00,
2013-04-28 16:21:00,72.9,20.8,29.90,SW,225,8.1,8.1,14,0.00,CLR,,0.00,WeatherDisplay:10.37,2013-04-28 20:21:00,
2013-04-28 16:22:00,72.7,20.7,29.90,NW,315,10.9,10.9,14,0.00,CLR,,0.00,WeatherDisplay:10.37,2013-04-28 20:22:00,
2013-04-28 16:23:00,72.7,20.7,29.90,SW,225,11.5,11.5,14,0.00,CLR,,0.00,WeatherDisplay:10.37,2013-04-28 20:23:00,
2013-04-28 16:24:00,72.7,20.7,29.90,South,180,8.1,8.1,14,0.00,CLR,,0.00,WeatherDisplay:10.37,2013-04-28 20:24:00,
2013-04-28 16:26:00,72.5,20.5,29.90,East,90,2.9,2.9,14,0.00,CLR,,0.00,WeatherDisplay:10.37,2013-04-28 20:26:00,
2013-04-28 16:27:00,72.7,20.7,29.90,SSW,202,3.5,4.7,14,0.00,CLR,,0.00,WeatherDisplay:10.37,2013-04-28 20:27:00,
2013-04-28 16:28:00,72.3,20.4,29.90,WNW,292,5.8,5.8,14,0.00,CLR,,0.00,WeatherDisplay:10.37,2013-04-28 20:28:00,
2013-04-28 16:29:00,72.3,20.4,29.90,West,270,5.4,5.4,14,0.00,CLR,,0.00,WeatherDisplay:10.37,2013-04-28 20:29:00,
2013-04-28 16:31:00,72.1,20.3,29.90,SSW,202,5.8,5.8,14,0.00,CLR,,0.00,WeatherDisplay:10.37,2013-04-28 20:31:00,
2013-04-28 16:32:00,72.1,20.3,29.90,NNW,338,5.8,5.8,14,0.00,CLR,,0.00,WeatherDisplay:10.37,2013-04-28 20:32:00,
2013-04-28 16:33:00,72.1,20.3,29.90,WSW,248,11.5,11.5,14,0.00,CLR,,0.00,WeatherDisplay:10.37,2013-04-28 20:33:00,
2013-04-28 16:34:00,72.0,20.1,29.90,WSW,248,11.5,11.5,14,0.00,CLR,,0.00,WeatherDisplay:10.37,2013-04-28 20:34:00,
2013-04-28 16:36:00,71.8,20.0,29.90,NW,315,10.4,10.4,14,0.00,CLR,,0.00,WeatherDisplay:10.37,2013-04-28 20:36:00,
2013-04-28 16:37:00,71.8,20.0,29.90,SW,225,6.9,6.9,14,0.00,CLR,,0.00,WeatherDisplay:10.37,2013-04-28 20:37:00,
2013-04-28 16:38:00,71.8,20.0,29.90,WSW,248,5.6,6.4,14,0.00,CLR,,0.00,WeatherDisplay:10.37,2013-04-28 20:38:00,
2013-04-28 16:39:00,71.8,20.0,29.90,WSW,248,5.6,6.4,14,0.00,CLR,,0.00,WeatherDisplay:10.37,2013-04-28 20:39:00,
2013-04-28 16:41:00,71.6,19.8,29.90,WNW,292,5.8,5.8,14,0.00,CLR,,0.00,WeatherDisplay:10.37,2013-04-28 20:41:00,
2013-04-28 16:42:00,71.4,19.7,29.90,WSW,248,13.8,13.8,14,0.00,CLR,,0.00,WeatherDisplay:10.37,2013-04-28 20:42:00,
2013-04-28 16:44:00,71.4,19.7,29.90,West,270,5.8,5.8,14,0.00,CLR,,0.00,WeatherDisplay:10.37,2013-04-28 20:44:00,
2013-04-28 16:46:00,71.2,19.5,29.90,West,270,9.2,9.2,14,0.00,CLR,,0.00,WeatherDisplay:10.37,2013-04-28 20:46:00,
2013-04-28 16:47:00,71.2,19.5,29.90,WSW,248,8.1,8.1,14,0.00,CLR,,0.00,WeatherDisplay:10.37,2013-04-28 20:47:00,
2013-04-28 16:49:00,71.2,19.5,29.90,WSW,248,8.1,8.1,14,0.00,CLR,,0.00,WeatherDisplay:10.37,2013-04-28 20:49:00,
2013-04-28 16:51:00,71.1,19.4,29.90,West,270,5.9,5.9,14,0.00,CLR,,0.00,WeatherDisplay:10.37,2013-04-28 20:51:00,
2013-04-28 16:52:00,71.1,19.4,29.90,West,270,10.4,10.4,14,0.00,CLR,,0.00,WeatherDisplay:10.37,2013-04-28 20:52:00,
2013-04-28 16:54:00,71.1,19.4,29.90,SW,225,5.8,5.8,14,0.00,CLR,,0.00,WeatherDisplay:10.37,2013-04-28 20:54:00,
2013-04-28 16:55:00,71.1,19.4,29.90,SW,225,3.5,3.6,14,0.00,CLR,,0.00,WeatherDisplay:10.37,2013-04-28 20:55:00,
2013-04-28 16:56:00,71.1,19.4,29.90,SE,135,3.5,3.5,14,0.00,CLR,,0.00,WeatherDisplay:10.37,2013-04-28 20:56:00,
2013-04-28 16:57:00,71.2,19.5,29.90,SE,135,2.3,2.3,14,0.00,CLR,,0.00,WeatherDisplay:10.37,2013-04-28 20:57:00,
2013-04-28 16:59:00,71.2,19.5,29.90,WSW,248,6.9,6.9,14,0.00,CLR,,0.00,WeatherDisplay:10.37,2013-04-28 20:59:00,
2013-04-28 17:00:00,71.2,24.1,29.90,WSW,248,6.9,6.9,17,0.00,CLR,,0.00,WeatherDisplay:10.37,2013-04-28 21:00:00,
2013-04-28 17:01:00,71.2,24.1,29.90,SSW,202,6.9,6.9,17,0.00,CLR,,0.00,WeatherDisplay:10.37,2013-04-28 21:01:00,
2013-04-28 17:02:00,71.2,24.1,29.90,SSW,202,5.8,5.8,17,0.00,CLR,,0.00,WeatherDisplay:10.37,2013-04-28 21:02:00,
2013-04-28 17:05:00,70.9,19.3,29.90,WSW,248,8.1,8.1,14,0.00,CLR,,0.00,WeatherDisplay:10.37,2013-04-28 21:05:00,
2013-04-28 17:06:00,70.9,23.9,29.90,SW,225,4.6,4.6,17,0.00,CLR,,0.00,WeatherDisplay:10.37,2013-04-28 21:06:00,
2013-04-28 17:07:00,70.7,23.7,29.90,West,270,4.6,4.6,17,0.00,CLR,,0.00,WeatherDisplay:10.37,2013-04-28 21:07:00,
2013-04-28 17:08:00,70.7,23.7,29.90,WSW,248,4.6,5.4,17,0.00,CLR,,0.00,WeatherDisplay:10.37,2013-04-28 21:08:00,
2013-04-28 17:10:00,70.9,23.9,29.90,SW,225,2.3,2.3,17,0.00,CLR,,0.00,WeatherDisplay:10.37,2013-04-28 21:10:00,
2013-04-28 17:12:00,70.7,23.7,29.90,SSW,202,8.1,8.1,17,0.00,CLR,,0.00,WeatherDisplay:10.37,2013-04-28 21:12:00,
2013-04-28 17:13:00,70.5,23.6,29.90,West,270,4.6,4.6,17,0.00,CLR,,0.00,WeatherDisplay:10.37,2013-04-28 21:13:00,
2013-04-28 17:15:00,70.5,23.6,29.90,South,180,3.5,4.0,17,0.00,CLR,,0.00,WeatherDisplay:10.37,2013-04-28 21:15:00,
2013-04-28 17:18:00,70.3,23.4,29.90,West,270,1.6,2.9,17,0.00,CLR,,0.00,WeatherDisplay:10.37,2013-04-28 21:18:00,
2013-04-28 17:20:00,70.3,23.4,29.90,SSW,202,2.3,4.0,17,0.00,CLR,,0.00,WeatherDisplay:10.37,2013-04-28 21:20:00,
2013-04-28 17:23:00,70.3,23.4,29.90,SSW,202,2.3,2.3,17,0.00,CLR,,0.00,WeatherDisplay:10.37,2013-04-28 21:23:00,
2013-04-28 17:25:00,70.2,23.3,29.90,North,0,6.9,6.9,17,0.00,CLR,,0.00,WeatherDisplay:10.37,2013-04-28 21:25:00,
2013-04-28 17:28:00,70.2,23.3,29.90,SW,225,6.9,6.9,17,0.00,CLR,,0.00,WeatherDisplay:10.37,2013-04-28 21:28:00,
2013-04-28 17:31:00,70.0,23.1,29.90,SSW,202,4.6,4.9,17,0.00,CLR,,0.00,WeatherDisplay:10.37,2013-04-28 21:31:00,
2013-04-28 17:33:00,70.0,23.1,29.90,West,270,4.6,4.6,17,0.00,CLR,,0.00,WeatherDisplay:10.37,2013-04-28 21:33:00,
2013-04-28 17:36:00,70.0,23.1,29.90,SSW,202,2.4,2.4,17,0.00,CLR,,0.00,WeatherDisplay:10.37,2013-04-28 21:36:00,
2013-04-28 17:38:00,70.2,23.3,29.90,SSW,202,1.6,1.6,17,0.00,CLR,,0.00,WeatherDisplay:10.37,2013-04-28 21:38:00,
2013-04-28 17:40:00,70.2,23.3,29.90,West,270,2.6,3.8,17,0.00,CLR,,0.00,WeatherDisplay:10.37,2013-04-28 21:40:00,
2013-04-28 17:41:00,70.0,23.1,29.90,SSW,202,2.6,2.6,17,0.00,CLR,,0.00,WeatherDisplay:10.37,2013-04-28 21:41:00,
2013-04-28 17:43:00,69.8,23.0,29.90,South,180,3.6,6.2,17,0.00,CLR,,0.00,WeatherDisplay:10.37,2013-04-28 21:43:00,
2013-04-28 17:44:00,69.8,23.0,29.90,South,180,3.6,6.2,17,0.00,CLR,,0.00,WeatherDisplay:10.37,2013-04-28 21:44:00,
2013-04-28 17:45:00,69.8,23.0,29.90,WSW,248,3.8,3.8,17,0.00,CLR,,0.00,WeatherDisplay:10.37,2013-04-28 21:45:00,
2013-04-28 17:46:00,69.8,23.0,29.90,SSW,202,3.5,3.6,17,0.00,CLR,,0.00,WeatherDisplay:10.37,2013-04-28 21:46:00,
2013-04-28 17:47:00,69.8,23.0,29.90,SSW,202,3.5,3.6,17,0.00,CLR,,0.00,WeatherDisplay:10.37,2013-04-28 21:47:00,
2013-04-28 17:49:00,69.6,22.8,29.90,SSW,202,3.5,4.3,17,0.00,CLR,,0.00,WeatherDisplay:10.37,2013-04-28 21:49:00,
2013-04-28 17:50:00,69.6,22.8,29.90,SSW,202,3.5,4.3,17,0.00,CLR,,0.00,WeatherDisplay:10.37,2013-04-28 21:50:00,
2013-04-28 17:52:00,69.6,22.8,29.90,SSW,202,2.3,2.4,17,0.00,CLR,,0.00,WeatherDisplay:10.37,2013-04-28 21:52:00,
2013-04-28 17:54:00,69.4,22.7,29.90,West,270,5.8,5.8,17,0.00,CLR,,0.00,WeatherDisplay:10.37,2013-04-28 21:54:00,
2013-04-28 17:55:00,69.4,22.7,29.90,SSW,202,5.8,5.8,17,0.00,CLR,,0.00,WeatherDisplay:10.37,2013-04-28 21:55:00,
2013-04-28 17:57:00,69.4,22.7,29.90,WNW,292,10.2,10.2,17,0.00,CLR,,0.00,WeatherDisplay:10.37,2013-04-28 21:57:00,
2013-04-28 17:58:00,69.4,22.7,29.90,SSW,202,10.4,10.4,17,0.00,CLR,,0.00,WeatherDisplay:10.37,2013-04-28 21:58:00,
2013-04-28 17:59:00,69.3,22.5,29.90,SSW,202,3.6,6.9,17,0.00,CLR,,0.00,WeatherDisplay:10.37,2013-04-28 21:59:00,
2013-04-28 18:00:00,69.3,22.5,29.90,SSW,202,3.5,3.5,17,0.00,CLR,,0.00,WeatherDisplay:10.37,2013-04-28 22:00:00,
2013-04-28 18:02:00,69.3,22.5,29.90,WSW,248,6.9,6.9,17,0.00,CLR,,0.00,WeatherDisplay:10.37,2013-04-28 22:02:00,
2013-04-28 18:03:00,69.3,22.5,29.90,WNW,292,6.9,6.9,17,0.00,CLR,,0.00,WeatherDisplay:10.37,2013-04-28 22:03:00,
2013-04-28 18:04:00,69.1,22.4,29.90,SSW,202,2.4,2.4,17,0.00,CLR,,0.00,WeatherDisplay:10.37,2013-04-28 22:04:00,
2013-04-28 18:05:00,69.1,22.4,29.90,WSW,248,2.4,2.4,17,0.00,CLR,,0.00,WeatherDisplay:10.37,2013-04-28 22:05:00,
2013-04-28 18:08:00,69.1,22.4,29.90,SSE,158,2.9,2.9,17,0.00,CLR,,0.00,WeatherDisplay:10.37,2013-04-28 22:08:00,
2013-04-28 18:09:00,69.1,26.3,29.90,WNW,292,2.3,0.0,20,0.00,CLR,,0.00,WeatherDisplay:10.37,2013-04-28 22:09:00,
2013-04-28 18:10:00,68.9,26.1,29.90,WNW,292,2.3,0.0,20,0.00,CLR,,0.00,WeatherDisplay:10.37,2013-04-28 22:10:00,
2013-04-28 18:11:00,68.9,26.1,29.90,WNW,292,0.0,0.0,20,0.00,CLR,,0.00,WeatherDisplay:10.37,2013-04-28 22:11:00,
2013-04-28 18:13:00,68.9,22.2,29.90,SW,225,2.3,2.3,17,0.00,CLR,,0.00,WeatherDisplay:10.37,2013-04-28 22:13:00,
2013-04-28 18:14:00,68.9,22.2,29.90,SW,225,2.3,2.3,17,0.00,CLR,,0.00,WeatherDisplay:10.37,2013-04-28 22:14:00,
2013-04-28 18:16:00,68.7,26.0,29.90,WSW,248,2.3,2.6,20,0.00,CLR,,0.00,WeatherDisplay:10.37,2013-04-28 22:16:00,
2013-04-28 18:18:00,68.5,25.8,29.90,WSW,248,0.0,2.6,20,0.00,CLR,,0.00,WeatherDisplay:10.37,2013-04-28 22:18:00,
2013-04-28 18:19:00,68.5,25.8,29.90,WSW,248,0.0,2.6,20,0.00,CLR,,0.00,WeatherDisplay:10.37,2013-04-28 22:19:00,
2013-04-28 18:20:00,68.5,25.8,29.90,WSW,248,0.0,2.6,20,0.00,CLR,,0.00,WeatherDisplay:10.37,2013-04-28 22:20:00,
2013-04-28 18:21:00,68.4,25.7,29.90,WSW,248,0.0,2.6,20,0.00,CLR,,0.00,WeatherDisplay:10.37,2013-04-28 22:21:00,
2013-04-28 18:23:00,68.4,25.7,29.90,WSW,248,1.1,2.4,20,0.00,CLR,,0.00,WeatherDisplay:10.37,2013-04-28 22:23:00,
2013-04-28 18:24:00,68.4,25.7,29.90,SSW,202,2.3,2.3,20,0.00,CLR,,0.00,WeatherDisplay:10.37,2013-04-28 22:24:00,
2013-04-28 18:25:00,68.4,25.7,29.90,SSW,202,3.5,3.5,20,0.00,CLR,,0.00,WeatherDisplay:10.37,2013-04-28 22:25:00,
2013-04-28 18:26:00,68.2,25.5,29.90,SSW,202,3.5,3.5,20,0.00,CLR,,0.00,WeatherDisplay:10.37,2013-04-28 22:26:00,
2013-04-28 18:29:00,68.0,25.4,29.90,WSW,248,3.5,3.5,20,0.00,CLR,,0.00,WeatherDisplay:10.37,2013-04-28 22:29:00,
2013-04-28 18:30:00,68.0,25.4,29.90,WSW,248,1.4,1.4,20,0.00,CLR,,0.00,WeatherDisplay:10.37,2013-04-28 22:30:00,
2013-04-28 18:31:00,68.0,25.4,29.90,WSW,248,5.8,5.8,20,0.00,CLR,,0.00,WeatherDisplay:10.37,2013-04-28 22:31:00,
2013-04-28 18:32:00,68.0,25.4,29.90,WNW,292,5.8,5.8,20,0.00,CLR,,0.00,WeatherDisplay:10.37,2013-04-28 22:32:00,
2013-04-28 18:34:00,67.8,25.2,29.90,SW,225,2.3,2.3,20,0.00,CLR,,0.00,WeatherDisplay:10.37,2013-04-28 22:34:00,
2013-04-28 18:35:00,67.8,25.2,29.90,SW,225,6.4,0.0,20,0.00,CLR,,0.00,WeatherDisplay:10.37,2013-04-28 22:35:00,
2013-04-28 18:36:00,67.8,25.2,29.90,WSW,248,6.9,6.9,20,0.00,CLR,,0.00,WeatherDisplay:10.37,2013-04-28 22:36:00,
2013-04-28 18:37:00,67.8,25.2,29.90,WSW,248,6.9,6.9,20,0.00,CLR,,0.00,WeatherDisplay:10.37,2013-04-28 22:37:00,
2013-04-28 18:40:00,67.6,25.1,29.90,South,180,1.4,2.9,20,0.00,CLR,,0.00,WeatherDisplay:10.37,2013-04-28 22:40:00,
2013-04-28 18:41:00,67.6,25.1,29.90,South,180,1.4,2.9,20,0.00,CLR,,0.00,WeatherDisplay:10.37,2013-04-28 22:41:00,
2013-04-28 18:42:00,67.6,25.1,29.90,South,180,1.4,2.9,20,0.00,CLR,,0.00,WeatherDisplay:10.37,2013-04-28 22:42:00,
2013-04-28 18:45:00,67.5,24.9,29.90,South,180,1.4,2.9,20,0.00,CLR,,0.00,WeatherDisplay:10.37,2013-04-28 22:45:00,
2013-04-28 18:46:00,67.5,24.9,29.90,South,180,1.4,2.9,20,0.00,CLR,,0.00,WeatherDisplay:10.37,2013-04-28 22:46:00,
2013-04-28 18:47:00,67.3,27.1,29.90,South,180,1.4,2.9,22,0.00,CLR,,0.00,WeatherDisplay:10.37,2013-04-28 22:47:00,
2013-04-28 18:50:00,67.1,26.9,29.90,South,180,1.4,2.9,22,0.00,CLR,,0.00,WeatherDisplay:10.37,2013-04-28 22:50:00,
2013-04-28 18:51:00,67.1,26.9,29.90,NW,315,8.5,8.5,22,0.00,CLR,,0.00,WeatherDisplay:10.37,2013-04-28 22:51:00,
2013-04-28 18:52:00,66.6,27.6,29.90,WNW,292,8.1,8.1,23,0.00,CLR,,0.00,WeatherDisplay:10.37,2013-04-28 22:52:00,
2013-04-28 18:55:00,66.4,27.4,29.90,WNW,292,5.8,5.8,23,0.00,CLR,,0.00,WeatherDisplay:10.37,2013-04-28 22:55:00,
2013-04-28 18:56:00,66.2,28.3,29.90,WNW,292,0.0,4.5,24,0.00,CLR,,0.00,WeatherDisplay:10.37,2013-04-28 22:56:00,
2013-04-28 18:57:00,66.2,28.3,29.90,WNW,292,3.8,5.4,24,0.00,CLR,,0.00,WeatherDisplay:10.37,2013-04-28 22:57:00,
2013-04-28 18:58:00,66.2,28.3,29.90,WNW,292,3.8,5.4,24,0.00,CLR,,0.00,WeatherDisplay:10.37,2013-04-28 22:58:00,
2013-04-28 19:00:00,66.0,28.2,29.90,WNW,292,3.8,5.4,24,0.00,CLR,,0.00,WeatherDisplay:10.37,2013-04-28 23:00:00,
2013-04-28 19:01:00,65.7,27.9,29.90,WNW,292,10.5,10.5,24,0.00,CLR,,0.00,WeatherDisplay:10.37,2013-04-28 23:01:00,
2013-04-28 19:02:00,65.7,27.9,29.90,WSW,248,10.4,10.4,24,0.00,CLR,,0.00,WeatherDisplay:10.37,2013-04-28 23:02:00,
2013-04-28 19:03:00,65.7,28.8,29.90,WSW,248,8.1,8.1,25,0.00,CLR,,0.00,WeatherDisplay:10.37,2013-04-28 23:03:00,
2013-04-28 19:05:00,65.5,28.7,29.90,WNW,292,16.1,16.1,25,0.00,CLR,,0.00,WeatherDisplay:10.37,2013-04-28 23:05:00,
2013-04-28 19:06:00,65.3,28.5,29.90,WNW,292,19.2,19.2,25,0.00,CLR,,0.00,WeatherDisplay:10.37,2013-04-28 23:06:00,
2013-04-28 19:07:00,65.3,29.5,29.90,WNW,292,19.6,19.6,26,0.00,CLR,,0.00,WeatherDisplay:10.37,2013-04-28 23:07:00,
2013-04-28 19:08:00,65.3,29.5,29.90,NW,315,17.3,17.3,26,0.00,CLR,,0.00,WeatherDisplay:10.37,2013-04-28 23:08:00,
2013-04-28 19:11:00,64.8,30.9,29.90,WSW,248,15.0,15.0,28,0.00,CLR,,0.00,WeatherDisplay:10.37,2013-04-28 23:11:00,
2013-04-28 19:12:00,64.8,30.9,29.90,SW,225,15.0,15.0,28,0.00,CLR,,0.00,WeatherDisplay:10.37,2013-04-28 23:12:00,
2013-04-28 19:13:00,64.2,32.9,29.90,WSW,248,6.9,6.9,31,0.00,CLR,,0.00,WeatherDisplay:10.37,2013-04-28 23:13:00,
2013-04-28 19:16:00,64.0,34.3,29.90,West,270,16.1,16.1,33,0.00,CLR,,0.00,WeatherDisplay:10.37,2013-04-28 23:16:00,
2013-04-28 19:17:00,64.0,34.3,29.90,WSW,248,6.9,6.9,33,0.00,CLR,,0.00,WeatherDisplay:10.37,2013-04-28 23:17:00,
2013-04-28 19:18:00,64.0,34.3,29.90,WSW,248,6.0,6.0,33,0.00,CLR,,0.00,WeatherDisplay:10.37,2013-04-28 23:18:00,
2013-04-28 19:21:00,63.1,37.1,29.90,WSW,248,6.0,6.0,38,0.00,CLR,,0.00,WeatherDisplay:10.37,2013-04-28 23:21:00,
2013-04-28 19:22:00,62.6,38.6,29.90,WSW,248,6.0,6.0,41,0.00,CLR,,0.00,WeatherDisplay:10.37,2013-04-28 23:22:00,
2013-04-28 19:23:00,62.6,38.6,29.93,WSW,248,6.0,6.0,41,0.00,CLR,,0.00,WeatherDisplay:10.37,2013-04-28 23:23:00,
2013-04-28 19:26:00,61.7,40.1,29.93,WSW,248,6.0,6.0,45,0.00,CLR,,0.00,WeatherDisplay:10.37,2013-04-28 23:26:00,
2013-04-28 19:27:00,61.3,40.4,29.93,WSW,248,6.0,6.0,46,0.00,CLR,,0.00,WeatherDisplay:10.37,2013-04-28 23:27:00,
2013-04-28 19:28:00,61.2,40.8,29.93,WSW,248,6.0,6.0,47,0.00,CLR,,0.00,WeatherDisplay:10.37,2013-04-28 23:28:00,
2013-04-28 19:31:00,60.8,39.9,29.93,WSW,248,6.0,6.0,46,0.00,CLR,,0.00,WeatherDisplay:10.37,2013-04-28 23:31:00,
2013-04-28 19:32:00,60.6,41.9,29.93,WSW,248,6.0,6.0,50,0.00,CLR,,0.00,WeatherDisplay:10.37,2013-04-28 23:32:00,
2013-04-28 19:33:00,60.6,41.9,29.93,WSW,248,6.0,6.0,50,0.00,CLR,,0.00,WeatherDisplay:10.37,2013-04-28 23:33:00,
2013-04-28 19:37:00,59.7,42.1,29.93,WSW,248,6.0,6.0,52,0.00,CLR,,0.00,WeatherDisplay:10.37,2013-04-28 23:37:00,
2013-04-28 19:38:00,59.5,41.9,29.93,WSW,248,6.0,6.0,52,0.00,CLR,,0.00,WeatherDisplay:10.37,2013-04-28 23:38:00,
2013-04-28 19:39:00,59.5,42.9,29.93,WSW,248,6.0,6.0,54,0.00,CLR,,0.00,WeatherDisplay:10.37,2013-04-28 23:39:00,
2013-04-28 19:43:00,59.2,42.5,29.93,WSW,248,6.0,6.0,54,0.00,CLR,,0.00,WeatherDisplay:10.37,2013-04-28 23:43:00,
2013-04-28 19:44:00,59.0,43.8,29.93,WSW,248,6.0,6.0,57,0.00,CLR,,0.00,WeatherDisplay:10.37,2013-04-28 23:44:00,
2013-04-28 19:48:00,58.6,44.3,29.93,WNW,292,4.9,4.9,59,0.00,CLR,,0.00,WeatherDisplay:10.37,2013-04-28 23:48:00,
2013-04-28 19:49:00,58.5,44.6,29.93,WNW,292,4.9,4.9,60,0.00,CLR,,0.00,WeatherDisplay:10.37,2013-04-28 23:49:00,
2013-04-28 19:53:00,58.1,45.6,29.90,WNW,292,4.9,4.9,63,0.00,CLR,,0.00,WeatherDisplay:10.37,2013-04-28 23:53:00,
2013-04-28 19:54:00,58.1,45.6,29.90,WNW,292,4.9,4.9,63,0.00,CLR,,0.00,WeatherDisplay:10.37,2013-04-28 23:54:00,
2013-04-28 19:58:00,57.7,46.5,29.90,WNW,292,6.9,6.9,66,0.00,CLR,,0.00,WeatherDisplay:10.37,2013-04-28 23:58:00,
2013-04-28 19:59:00,57.6,46.3,29.90,WNW,292,5.8,5.8,66,0.00,CLR,,0.00,WeatherDisplay:10.37,2013-04-28 23:59:00,
2013-04-28 20:03:00,57.4,46.1,29.90,WNW,292,1.4,1.4,66,0.00,CLR,,0.00,WeatherDisplay:10.37,2013-04-29 00:03:00,
2013-04-28 20:04:00,57.4,45.7,29.90,WNW,292,1.4,1.4,65,0.00,CLR,,0.00,WeatherDisplay:10.37,2013-04-29 00:04:00,
2013-04-28 20:05:00,57.2,46.3,29.90,WNW,292,1.4,1.4,67,0.00,CLR,,0.00,WeatherDisplay:10.37,2013-04-29 00:05:00,
2013-04-28 20:09:00,57.0,46.6,29.93,NNW,338,3.6,5.9,68,0.00,CLR,,0.00,WeatherDisplay:10.37,2013-04-29 00:09:00,
2013-04-28 20:10:00,57.0,46.6,29.93,WSW,248,3.5,3.5,68,0.00,CLR,,0.00,WeatherDisplay:10.37,2013-04-29 00:10:00,
2013-04-28 20:14:00,56.8,47.2,29.93,WSW,248,1.1,1.1,70,0.00,CLR,,0.00,WeatherDisplay:10.37,2013-04-29 00:14:00,
2013-04-28 20:15:00,56.8,47.2,29.93,WSW,248,1.1,1.1,70,0.00,CLR,,0.00,WeatherDisplay:10.37,2013-04-29 00:15:00,
2013-04-28 20:16:00,56.7,47.0,29.93,WSW,248,1.1,1.1,70,0.00,CLR,,0.00,WeatherDisplay:10.37,2013-04-29 00:16:00,
2013-04-28 20:19:00,56.7,47.0,29.93,WSW,248,1.1,1.1,70,0.00,CLR,,0.00,WeatherDisplay:10.37,2013-04-29 00:19:00,
2013-04-28 20:20:00,56.7,47.0,29.93,WSW,248,1.1,1.1,70,0.00,CLR,,0.00,WeatherDisplay:10.37,2013-04-29 00:20:00,
2013-04-28 20:21:00,56.7,47.0,29.93,WSW,248,1.1,1.1,70,0.00,CLR,,0.00,WeatherDisplay:10.37,2013-04-29 00:21:00,
2013-04-28 20:24:00,56.7,46.6,29.93,WNW,292,0.0,0.0,69,0.00,CLR,,0.00,WeatherDisplay:10.37,2013-04-29 00:24:00,
2013-04-28 20:25:00,56.7,46.6,29.93,WNW,292,0.0,0.0,69,0.00,CLR,,0.00,WeatherDisplay:10.37,2013-04-29 00:25:00,
2013-04-28 20:26:00,56.7,46.6,29.93,WNW,292,0.0,0.0,69,0.00,CLR,,0.00,WeatherDisplay:10.37,2013-04-29 00:26:00,
2013-04-28 20:29:00,56.7,47.0,29.93,SW,225,3.5,3.5,70,0.00,CLR,,0.00,WeatherDisplay:10.37,2013-04-29 00:29:00,
2013-04-28 20:30:00,56.7,46.6,29.93,SW,225,1.1,1.6,69,0.00,CLR,,0.00,WeatherDisplay:10.37,2013-04-29 00:30:00,
2013-04-28 20:31:00,56.7,46.6,29.93,WNW,292,0.0,2.2,69,0.00,CLR,,0.00,WeatherDisplay:10.37,2013-04-29 00:31:00,
2013-04-28 20:32:00,56.7,46.6,29.93,SE,135,0.0,2.2,69,0.00,CLR,,0.00,WeatherDisplay:10.37,2013-04-29 00:32:00,
2013-04-28 20:35:00,56.7,46.2,29.93,SE,135,0.0,2.2,68,0.00,CLR,,0.00,WeatherDisplay:10.37,2013-04-29 00:35:00,
2013-04-28 20:36:00,56.7,46.2,29.93,SE,135,0.0,2.2,68,0.00,CLR,,0.00,WeatherDisplay:10.37,2013-04-29 00:36:00,
2013-04-28 20:37:00,56.7,46.2,29.93,SE,135,0.0,2.2,68,0.00,CLR,,0.00,WeatherDisplay:10.37,2013-04-29 00:37:00,
2013-04-28 20:40:00,56.7,45.4,29.90,SE,135,0.0,2.2,66,0.00,CLR,,0.00,WeatherDisplay:10.37,2013-04-29 00:40:00,
2013-04-28 20:41:00,56.8,45.6,29.90,SE,135,0.0,2.2,66,0.00,CLR,,0.00,WeatherDisplay:10.37,2013-04-29 00:41:00,
2013-04-28 20:42:00,56.8,45.6,29.90,SE,135,0.0,2.2,66,0.00,CLR,,0.00,WeatherDisplay:10.37,2013-04-29 00:42:00,
2013-04-28 20:45:00,56.7,45.4,29.90,SE,135,0.0,2.2,66,0.00,CLR,,0.00,WeatherDisplay:10.37,2013-04-29 00:45:00,
2013-04-28 20:46:00,56.7,45.4,29.90,SE,135,0.0,2.2,66,0.00,CLR,,0.00,WeatherDisplay:10.37,2013-04-29 00:46:00,
2013-04-28 20:47:00,56.7,45.0,29.90,SE,135,0.0,2.2,65,0.00,CLR,,0.00,WeatherDisplay:10.37,2013-04-29 00:47:00,
2013-04-28 20:50:00,56.7,45.4,29.90,WNW,292,0.0,0.0,66,0.00,CLR,,0.00,WeatherDisplay:10.37,2013-04-29 00:50:00,
2013-04-28 20:51:00,56.7,45.4,29.90,WNW,292,0.0,0.0,66,0.00,CLR,,0.00,WeatherDisplay:10.37,2013-04-29 00:51:00,
2013-04-28 20:52:00,56.7,44.6,29.90,WNW,292,0.0,0.0,64,0.00,CLR,,0.00,WeatherDisplay:10.37,2013-04-29 00:52:00,
2013-04-28 20:53:00,56.7,44.6,29.93,WSW,248,8.1,8.1,64,0.00,CLR,,0.00,WeatherDisplay:10.37,2013-04-29 00:53:00,
2013-04-28 20:56:00,56.5,44.9,29.93,WSW,248,8.1,8.1,65,0.00,CLR,,0.00,WeatherDisplay:10.37,2013-04-29 00:56:00,
2013-04-28 20:57:00,56.5,44.9,29.93,WSW,248,8.1,8.1,65,0.00,CLR,,0.00,WeatherDisplay:10.37,2013-04-29 00:57:00,
2013-04-28 20:58:00,56.5,44.4,29.93,WSW,248,8.1,8.1,64,0.00,CLR,,0.00,WeatherDisplay:10.37,2013-04-29 00:58:00,
2013-04-28 21:01:00,56.3,44.3,29.93,West,270,8.1,8.1,64,0.04,RA,,0.04,WeatherDisplay:10.37,2013-04-29 01:01:00,
2013-04-28 21:02:00,56.3,44.3,29.93,West,270,5.8,5.8,64,0.04,RA,,0.04,WeatherDisplay:10.37,2013-04-29 01:02:00,
2013-04-28 21:03:00,56.3,44.3,29.93,West,270,5.8,5.8,64,0.04,RA,,0.04,WeatherDisplay:10.37,2013-04-29 01:03:00,
2013-04-28 21:06:00,56.1,44.5,29.93,West,270,5.8,5.8,65,0.04,RA,,0.04,WeatherDisplay:10.37,2013-04-29 01:06:00,
2013-04-28 21:07:00,56.1,44.1,29.93,West,270,5.8,5.8,64,0.04,RA,,0.04,WeatherDisplay:10.37,2013-04-29 01:07:00,
2013-04-28 21:08:00,56.1,44.5,29.90,West,270,5.8,5.8,65,0.04,RA,,0.04,WeatherDisplay:10.37,2013-04-29 01:08:00,
2013-04-28 21:11:00,55.9,44.3,29.90,West,270,0.0,0.9,65,0.04,,,0.04,WeatherDisplay:10.37,2013-04-29 01:11:00,
2013-04-28 21:12:00,55.9,44.3,29.90,West,270,0.0,0.9,65,0.04,,,0.04,WeatherDisplay:10.37,2013-04-29 01:12:00,
2013-04-28 21:13:00,55.9,44.3,29.90,West,270,0.0,0.9,65,0.04,CLR,,0.04,WeatherDisplay:10.37,2013-04-29 01:13:00,
2013-04-28 21:16:00,55.8,44.2,29.90,West,270,1.1,0.0,65,0.04,CLR,,0.04,WeatherDisplay:10.37,2013-04-29 01:16:00,
2013-04-28 21:17:00,55.8,44.6,29.90,West,270,0.0,0.0,66,0.04,CLR,,0.04,WeatherDisplay:10.37,2013-04-29 01:17:00,
2013-04-28 21:18:00,55.8,44.6,29.90,West,270,0.0,0.0,66,0.04,CLR,,0.04,WeatherDisplay:10.37,2013-04-29 01:18:00,
2013-04-28 21:21:00,55.8,45.0,29.90,WSW,248,2.3,2.3,67,0.04,CLR,,0.04,WeatherDisplay:10.37,2013-04-29 01:21:00,
2013-04-28 21:22:00,55.8,44.6,29.90,WNW,292,2.3,0.0,66,0.04,CLR,,0.04,WeatherDisplay:10.37,2013-04-29 01:22:00,
2013-04-28 21:23:00,55.8,44.6,29.93,West,270,13.2,13.2,66,0.04,CLR,,0.04,WeatherDisplay:10.37,2013-04-29 01:23:00,
2013-04-28 21:26:00,55.9,44.3,29.93,WSW,248,3.8,3.8,65,0.04,CLR,,0.04,WeatherDisplay:10.37,2013-04-29 01:26:00,
2013-04-28 21:27:00,55.9,44.7,29.93,WSW,248,3.8,3.8,66,0.04,CLR,,0.04,WeatherDisplay:10.37,2013-04-29 01:27:00,
2013-04-28 21:28:00,55.9,44.7,29.93,WNW,292,3.5,0.0,66,0.04,CLR,,0.04,WeatherDisplay:10.37,2013-04-29 01:28:00,
2013-04-28 21:32:00,56.1,44.5,29.93,WNW,292,2.9,2.9,65,0.04,CLR,,0.04,WeatherDisplay:10.37,2013-04-29 01:32:00,
2013-04-28 21:33:00,56.1,44.5,29.93,WNW,292,2.3,0.0,65,0.04,CLR,,0.04,WeatherDisplay:10.37,2013-04-29 01:33:00,
2013-04-28 21:37:00,56.1,44.5,29.93,WSW,248,2.3,2.3,65,0.04,CLR,,0.04,WeatherDisplay:10.37,2013-04-29 01:37:00,
2013-04-28 21:38:00,56.1,44.5,29.93,SW,225,4.6,4.6,65,0.04,CLR,,0.04,WeatherDisplay:10.37,2013-04-29 01:38:00,
2013-04-28 21:42:00,56.1,44.5,29.93,WSW,248,2.3,2.3,65,0.04,CLR,,0.04,WeatherDisplay:10.37,2013-04-29 01:42:00,
2013-04-28 21:43:00,56.1,44.5,29.93,WSW,248,2.3,2.3,65,0.04,CLR,,0.04,WeatherDisplay:10.37,2013-04-29 01:43:00,
2013-04-28 21:44:00,56.1,44.9,29.93,WSW,248,2.3,2.3,66,0.04,CLR,,0.04,WeatherDisplay:10.37,2013-04-29 01:44:00,
2013-04-28 21:47:00,55.9,44.3,29.93,WNW,292,2.3,0.0,65,0.04,CLR,,0.04,WeatherDisplay:10.37,2013-04-29 01:47:00,
2013-04-28 21:48:00,55.9,44.7,29.93,WNW,292,0.0,0.0,66,0.04,CLR,,0.04,WeatherDisplay:10.37,2013-04-29 01:48:00,
2013-04-28 21:49:00,55.9,44.7,29.93,WNW,292,0.0,0.0,66,0.04,CLR,,0.04,WeatherDisplay:10.37,2013-04-29 01:49:00,
2013-04-28 21:52:00,55.8,45.0,29.93,West,270,6.2,6.2,67,0.04,CLR,,0.04,WeatherDisplay:10.37,2013-04-29 01:52:00,
2013-04-28 21:53:00,55.8,45.0,29.90,West,270,6.2,6.2,67,0.04,CLR,,0.04,WeatherDisplay:10.37,2013-04-29 01:53:00,
2013-04-28 21:54:00,55.8,45.0,29.90,West,270,6.2,6.2,67,0.04,CLR,,0.04,WeatherDisplay:10.37,2013-04-29 01:54:00,
2013-04-28 21:57:00,55.4,44.6,29.90,West,270,6.2,6.2,67,0.04,CLR,,0.04,WeatherDisplay:10.37,2013-04-29 01:57:00,
2013-04-28 21:58:00,55.4,45.0,29.90,West,270,6.2,6.2,68,0.04,CLR,,0.04,WeatherDisplay:10.37,2013-04-29 01:58:00,
2013-04-28 21:59:00,55.4,45.0,29.90,West,270,6.2,6.2,68,0.04,CLR,,0.04,WeatherDisplay:10.37,2013-04-29 01:59:00,
2013-04-28 22:00:00,55.4,45.0,29.90,WNW,292,3.8,3.8,68,0.00,CLR,,0.04,WeatherDisplay:10.37,2013-04-29 02:00:00,
2013-04-28 22:03:00,55.2,45.2,29.90,WNW,292,3.8,3.8,69,0.00,CLR,,0.04,WeatherDisplay:10.37,2013-04-29 02:03:00,
2013-04-28 22:04:00,55.2,45.6,29.90,WSW,248,6.9,6.9,70,0.00,CLR,,0.04,WeatherDisplay:10.37,2013-04-29 02:04:00,
2013-04-28 22:06:00,55.0,45.8,29.90,SSE,158,3.5,3.5,71,0.00,CLR,,0.04,WeatherDisplay:10.37,2013-04-29 02:06:00,
2013-04-28 22:08:00,54.9,45.6,29.93,West,270,4.6,4.6,71,0.00,CLR,,0.04,WeatherDisplay:10.37,2013-04-29 02:08:00,
2013-04-28 22:09:00,54.9,46.0,29.93,West,270,2.4,2.4,72,0.00,CLR,,0.04,WeatherDisplay:10.37,2013-04-29 02:09:00,
2013-04-28 22:11:00,54.7,45.8,29.93,West,270,2.4,2.4,72,0.00,CLR,,0.04,WeatherDisplay:10.37,2013-04-29 02:11:00,
2013-04-28 22:13:00,54.5,46.0,29.93,West,270,2.4,2.4,73,0.00,CLR,,0.04,WeatherDisplay:10.37,2013-04-29 02:13:00,
2013-04-28 22:14:00,54.5,46.0,29.93,West,270,2.4,2.4,73,0.00,CLR,,0.04,WeatherDisplay:10.37,2013-04-29 02:14:00,
2013-04-28 22:16:00,54.3,45.8,29.93,West,270,2.4,2.4,73,0.00,CLR,,0.04,WeatherDisplay:10.37,2013-04-29 02:16:00,
2013-04-28 22:18:00,54.3,46.6,29.93,SW,225,2.3,2.3,75,0.00,CLR,,0.04,WeatherDisplay:10.37,2013-04-29 02:18:00,
2013-04-28 22:19:00,54.3,46.6,29.93,West,270,2.9,2.9,75,0.00,CLR,,0.04,WeatherDisplay:10.37,2013-04-29 02:19:00,
2013-04-28 22:22:00,54.1,46.4,29.93,West,270,2.9,2.9,75,0.00,CLR,,0.04,WeatherDisplay:10.37,2013-04-29 02:22:00,
2013-04-28 22:23:00,54.1,46.7,29.93,WSW,248,2.3,0.0,76,0.00,CLR,,0.04,WeatherDisplay:10.37,2013-04-29 02:23:00,
2013-04-28 22:24:00,54.0,46.6,29.93,WSW,248,1.1,0.0,76,0.00,CLR,,0.04,WeatherDisplay:10.37,2013-04-29 02:24:00,
2013-04-28 22:27:00,54.0,46.9,29.93,WSW,248,0.0,1.1,77,0.00,CLR,,0.04,WeatherDisplay:10.37,2013-04-29 02:27:00,
2013-04-28 22:28:00,54.0,47.3,29.93,WSW,248,0.0,1.1,78,0.00,CLR,,0.04,WeatherDisplay:10.37,2013-04-29 02:28:00,
2013-04-28 22:29:00,54.0,47.3,29.93,WSW,248,0.0,1.1,78,0.00,CLR,,0.04,WeatherDisplay:10.37,2013-04-29 02:29:00,
2013-04-28 22:32:00,54.0,47.6,29.93,WSW,248,0.0,1.1,79,0.00,CLR,,0.04,WeatherDisplay:10.37,2013-04-29 02:32:00,
2013-04-28 22:34:00,53.8,47.4,29.93,WSW,248,0.0,1.1,79,0.00,CLR,,0.04,WeatherDisplay:10.37,2013-04-29 02:34:00,
2013-04-28 22:35:00,54.0,47.6,29.93,WSW,248,0.0,1.1,79,0.00,CLR,,0.04,WeatherDisplay:10.37,2013-04-29 02:35:00,
2013-04-28 22:37:00,54.0,47.9,29.93,WSW,248,0.0,1.1,80,0.00,CLR,,0.04,WeatherDisplay:10.37,2013-04-29 02:37:00,
2013-04-28 22:39:00,53.8,47.4,29.93,WSW,248,0.0,1.1,79,0.00,CLR,,0.04,WeatherDisplay:10.37,2013-04-29 02:39:00,
2013-04-28 22:40:00,53.8,47.8,29.93,WSW,248,0.0,1.1,80,0.00,CLR,,0.04,WeatherDisplay:10.37,2013-04-29 02:40:00,
2013-04-28 22:42:00,53.8,47.8,29.93,WSW,248,0.0,1.1,80,0.00,CLR,,0.04,WeatherDisplay:10.37,2013-04-29 02:42:00,
2013-04-28 22:44:00,53.8,47.8,29.93,WSW,248,0.0,1.1,80,0.00,CLR,,0.04,WeatherDisplay:10.37,2013-04-29 02:44:00,
2013-04-28 22:45:00,53.8,47.8,29.93,WSW,248,0.0,1.1,80,0.00,CLR,,0.04,WeatherDisplay:10.37,2013-04-29 02:45:00,
2013-04-28 22:47:00,53.6,47.6,29.93,WSW,248,0.0,1.1,80,0.00,CLR,,0.04,WeatherDisplay:10.37,2013-04-29 02:47:00,
2013-04-28 22:49:00,53.6,47.6,29.93,WSW,248,0.0,1.1,80,0.00,CLR,,0.04,WeatherDisplay:10.37,2013-04-29 02:49:00,
2013-04-28 22:50:00,53.8,47.8,29.93,WSW,248,0.0,1.1,80,0.00,CLR,,0.04,WeatherDisplay:10.37,2013-04-29 02:50:00,
2013-04-28 22:52:00,53.6,47.9,29.93,WSW,248,0.0,1.1,81,0.00,CLR,,0.04,WeatherDisplay:10.37,2013-04-29 02:52:00,
2013-04-28 22:54:00,53.6,47.9,29.93,WSW,248,0.0,1.1,81,0.00,CLR,,0.04,WeatherDisplay:10.37,2013-04-29 02:54:00,
2013-04-28 22:55:00,53.6,47.9,29.93,WSW,248,0.0,1.1,81,0.00,CLR,,0.04,WeatherDisplay:10.37,2013-04-29 02:55:00,
2013-04-28 22:57:00,53.6,47.9,29.93,NW,315,0.0,0.0,81,0.00,CLR,,0.04,WeatherDisplay:10.37,2013-04-29 02:57:00,
2013-04-28 23:00:00,53.6,48.2,29.93,NW,315,0.0,0.0,82,0.00,CLR,,0.04,WeatherDisplay:10.37,2013-04-29 03:00:00,
2013-04-28 23:01:00,53.6,48.2,29.93,NW,315,0.0,0.0,82,0.00,CLR,,0.04,WeatherDisplay:10.37,2013-04-29 03:01:00,
2013-04-28 23:02:00,53.6,48.2,29.93,NW,315,0.0,0.0,82,0.00,CLR,,0.04,WeatherDisplay:10.37,2013-04-29 03:02:00,
2013-04-28 23:05:00,53.6,48.2,29.93,NW,315,0.0,0.0,82,0.00,CLR,,0.04,WeatherDisplay:10.37,2013-04-29 03:05:00,
2013-04-28 23:06:00,53.4,48.1,29.93,NW,315,0.0,0.0,82,0.00,CLR,,0.04,WeatherDisplay:10.37,2013-04-29 03:06:00,
2013-04-28 23:07:00,53.4,48.1,29.93,WNW,292,5.9,0.0,82,0.00,CLR,,0.04,WeatherDisplay:10.37,2013-04-29 03:07:00,
2013-04-28 23:10:00,53.4,48.1,29.93,WNW,292,5.9,0.0,82,0.00,CLR,,0.04,WeatherDisplay:10.37,2013-04-29 03:10:00,
2013-04-28 23:11:00,53.4,48.1,29.93,WNW,292,5.9,0.0,82,0.00,CLR,,0.04,WeatherDisplay:10.37,2013-04-29 03:11:00,
2013-04-28 23:12:00,53.6,48.2,29.93,WNW,292,5.9,0.0,82,0.00,CLR,,0.04,WeatherDisplay:10.37,2013-04-29 03:12:00,
2013-04-28 23:16:00,53.6,47.9,29.93,WSW,248,1.1,2.0,81,0.00,CLR,,0.04,WeatherDisplay:10.37,2013-04-29 03:16:00,
2013-04-28 23:18:00,53.6,47.9,29.93,WSW,248,0.0,2.0,81,0.00,CLR,,0.04,WeatherDisplay:10.37,2013-04-29 03:18:00,
2013-04-28 23:21:00,53.8,47.8,29.93,WSW,248,0.0,2.0,80,0.00,CLR,,0.04,WeatherDisplay:10.37,2013-04-29 03:21:00,
2013-04-28 23:23:00,53.8,47.8,29.93,WSW,248,0.0,2.0,80,0.00,CLR,,0.04,WeatherDisplay:10.37,2013-04-29 03:23:00,
2013-04-28 23:26:00,54.0,46.6,29.93,WSW,248,0.0,2.0,76,0.00,CLR,,0.04,WeatherDisplay:10.37,2013-04-29 03:26:00,
2013-04-28 23:28:00,54.1,46.7,29.93,WSW,248,0.0,2.0,76,0.00,CLR,,0.04,WeatherDisplay:10.37,2013-04-29 03:28:00,
2013-04-28 23:31:00,54.1,46.0,29.93,West,270,3.5,3.5,74,0.00,CLR,,0.04,WeatherDisplay:10.37,2013-04-29 03:31:00,
2013-04-28 23:32:00,54.1,46.0,29.93,West,270,3.5,3.5,74,0.00,CLR,,0.04,WeatherDisplay:10.37,2013-04-29 03:32:00,
2013-04-28 23:33:00,54.1,46.0,29.93,West,270,3.5,3.5,74,0.00,CLR,,0.04,WeatherDisplay:10.37,2013-04-29 03:33:00,
2013-04-28 23:36:00,54.3,45.8,29.93,West,270,3.5,3.5,73,0.00,CLR,,0.04,WeatherDisplay:10.37,2013-04-29 03:36:00,
2013-04-28 23:37:00,54.3,45.8,29.93,West,270,3.5,3.5,73,0.00,CLR,,0.04,WeatherDisplay:10.37,2013-04-29 03:37:00,
2013-04-28 23:38:00,54.3,45.8,29.93,West,270,3.5,3.5,73,0.00,CLR,,0.04,WeatherDisplay:10.37,2013-04-29 03:38:00,
2013-04-28 23:41:00,54.3,45.8,29.93,West,270,3.5,3.5,73,0.00,CLR,,0.04,WeatherDisplay:10.37,2013-04-29 03:41:00,
2013-04-28 23:42:00,54.3,45.8,29.93,West,270,3.5,3.5,73,0.00,CLR,,0.04,WeatherDisplay:10.37,2013-04-29 03:42:00,
2013-04-28 23:44:00,54.3,45.5,29.93,West,270,3.5,3.5,72,0.00,CLR,,0.04,WeatherDisplay:10.37,2013-04-29 03:44:00,
2013-04-28 23:46:00,54.3,45.5,29.93,West,270,3.5,3.5,72,0.00,CLR,,0.04,WeatherDisplay:10.37,2013-04-29 03:46:00,
2013-04-28 23:47:00,54.3,45.1,29.93,West,270,3.5,3.5,71,0.00,CLR,,0.04,WeatherDisplay:10.37,2013-04-29 03:47:00,
2013-04-28 23:48:00,54.5,45.3,29.93,West,270,3.5,3.5,71,0.00,CLR,,0.04,WeatherDisplay:10.37,2013-04-29 03:48:00,
2013-04-28 23:49:00,54.5,44.9,29.93,West,270,3.5,3.5,70,0.00,CLR,,0.04,WeatherDisplay:10.37,2013-04-29 03:49:00,
2013-04-28 23:51:00,54.5,44.9,29.93,West,270,3.5,3.5,70,0.00,CLR,,0.04,WeatherDisplay:10.37,2013-04-29 03:51:00,
2013-04-28 23:52:00,54.5,44.9,29.93,West,270,3.5,3.5,70,0.00,CLR,,0.04,WeatherDisplay:10.37,2013-04-29 03:52:00,
2013-04-28 23:53:00,54.5,44.9,29.93,West,270,3.5,3.5,70,0.00,CLR,,0.04,WeatherDisplay:10.37,2013-04-29 03:53:00,
2013-04-28 23:54:00,54.5,44.9,29.93,West,270,3.5,3.5,70,0.00,CLR,,0.04,WeatherDisplay:10.37,2013-04-29 03:54:00,
2013-04-28 23:56:00,54.3,44.7,29.93,West,270,3.5,3.5,70,0.00,CLR,,0.04,WeatherDisplay:10.37,2013-04-29 03:56:00,
2013-04-28 23:57:00,54.3,44.7,29.93,West,270,3.5,3.5,70,0.00,CLR,,0.04,WeatherDisplay:10.37,2013-04-29 03:57:00,
2013-04-28 23:58:00,54.3,44.7,29.93,West,270,3.5,3.5,70,0.00,CLR,,0.04,WeatherDisplay:10.37,2013-04-29 03:58:00,
2013-04-28 23:59:00,54.3,44.7,29.93,West,270,3.5,3.5,70,0.00,CLR,,0.04,WeatherDisplay:10.37,2013-04-29 03:59:00,